GFSFLT1_sfc_dewp_000.txt.gz
Dewpoint
49 52 51 54 58 60 63 64 66 68 71 74 75 75 77 78 77 73 72 73 68 66 64 63 67 72 69 67 67 66 65 62 61
45 51 52 52 56 59 62 64 67 70 73 74 74 73 75 76 77 76 72 74 73 69 70 63 68 69 68 66 67 65 65 60 62
45 51 52 51 54 57 60 63 65 68 70 73 73 73 73 74 75 76 75 74 74 72 71 70 68 68 65 65 65 65 66 62 63
43 48 53 53 52 55 59 61 63 66 69 71 72 72 74 74 73 73 75 74 75 74 73 70 69 68 65 65 64 65 66 65 62
32 47 52 54 54 55 57 60 61 63 66 68 70 72 74 73 73 73 73 74 74 73 72 69 69 67 67 65 64 64 65 63 61
42 51 53 56 56 58 58 59 63 62 65 65 67 70 71 72 72 72 73 74 72 72 69 69 67 67 68 68 67 65 65 65 64
45 53 56 58 58 60 61 63 67 67 64 65 66 67 69 71 72 72 73 72 69 67 67 67 67 68 67 66 66 65 65 64 64
45 53 56 58 59 65 68 68 68 68 66 67 67 68 68 71 73 73 72 70 67 66 66 67 64 64 63 64 66 63 66 64 62
45 53 55 58 61 63 65 66 67 68 68 68 69 70 70 72 75 73 70 70 69 69 68 66 64 63 64 64 63 60 61 63 62
45 52 55 58 60 62 65 66 68 68 69 69 70 71 72 73 74 71 70 69 69 68 67 67 65 64 64 64 65 60 60 62 62
45 52 54 58 57 61 65 64 64 67 68 70 71 72 72 73 73 70 70 69 69 68 65 65 65 65 65 64 63 61 60 62 65
50 53 56 58 58 62 65 63 65 66 67 69 70 71 72 72 71 69 69 69 68 68 66 65 65 66 66 66 65 58 58 62 63
49 53 56 58 59 62 62 63 63 65 66 68 69 71 71 71 70 70 69 69 69 69 68 66 63 65 66 63 67 58 56 60 60
55 58 60 60 60 60 63 63 64 65 66 67 69 71 71 70 71 71 71 70 69 68 67 67 67 66 67 66 65 65 56 56 63
59 58 57 57 60 64 65 65 66 67 68 70 71 72 70 71 70 69 69 70 69 68 68 67 66 69 68 66 66 59 56 54 56
55 55 55 56 61 65 67 69 68 69 73 73 72 71 70 70 70 69 69 69 67 66 66 63 66 66 64 61 63 63 54 53 53
59 60 60 59 61 64 68 70 70 72 72 72 72 71 70 70 70 69 69 67 67 67 66 64 67 65 63 59 63 60 59 58 56
61 62 62 62 63 66 68 70 70 70 70 71 70 70 69 69 68 67 68 65 60 65 62 58 59 59 59 63 63 58 55 54 56
64 64 65 65 66 68 69 69 70 70 70 70 69 67 66 65 65 66 66 63 61 45 45 46 45 45 54 58 49 45 43 42 43
57 61 62 65 65 67 68 69 69 70 70 69 68 66 67 64 61 60 61 61 59 57 49 43 41 41 42 45 45 41 40 40 40

GFSFLT1_sfc_dewp_003.txt.gz
Dewpoint
40 49 51 50 56 60 64 65 69 70 74 78 79 77 78 79 79 72 70 73 69 66 64 64 71 71 71 70 67 67 67 63 62
32 45 50 51 53 58 62 64 68 70 74 76 77 74 79 79 78 77 72 76 75 69 73 65 66 69 71 70 67 67 68 62 66
34 39 50 51 52 55 60 61 65 69 72 75 75 75 76 76 76 78 77 77 76 74 73 71 71 69 69 69 69 69 70 66 67
32 40 48 51 51 53 57 59 62 66 69 73 74 75 75 76 75 75 76 75 75 75 74 74 72 72 70 68 67 67 68 67 65
33 40 46 50 51 52 54 59 59 61 64 66 71 74 76 76 76 75 75 76 76 76 75 74 72 72 70 67 67 68 67 65 63
34 40 44 49 50 52 54 56 60 58 62 62 65 72 72 74 74 75 75 76 76 76 76 74 70 71 70 67 67 67 67 67 65
36 38 50 49 51 55 56 59 62 62 61 60 62 66 68 73 75 75 74 76 76 75 75 73 70 70 68 67 66 66 65 65 65
34 36 47 53 54 61 63 63 65 65 63 65 64 69 69 73 76 75 75 76 77 75 73 71 69 68 67 66 63 62 66 65 65
33 34 36 52 57 59 65 65 67 67 67 67 68 72 71 74 77 76 76 76 75 73 72 70 68 66 65 65 60 60 63 65 63
35 39 40 47 56 60 63 64 68 68 70 69 71 74 74 76 78 76 75 74 74 72 71 70 68 65 66 65 65 60 61 63 63
37 40 41 44 52 59 65 62 63 67 68 73 74 75 75 76 77 75 73 72 72 72 71 70 68 66 67 66 65 60 60 63 65
36 37 40 46 55 59 68 66 69 70 70 72 73 73 75 76 76 74 72 71 71 71 71 71 68 66 68 67 67 58 58 62 65
45 46 43 51 57 61 65 68 66 69 68 70 72 73 74 76 75 74 71 71 71 72 72 70 65 65 67 65 68 57 57 61 64
50 49 56 60 61 66 68 68 66 69 69 69 70 71 72 74 73 72 71 72 72 71 71 69 67 66 67 69 67 65 56 56 63
54 54 58 59 63 65 66 68 69 70 71 72 74 73 73 72 72 70 70 72 70 70 70 69 68 69 68 66 68 60 55 55 55
59 59 60 59 60 65 66 70 70 72 75 75 74 74 73 72 72 72 72 71 70 69 69 65 65 65 63 63 65 70 56 55 54
54 56 59 60 62 65 68 70 69 72 73 74 74 72 71 71 71 70 71 69 68 66 65 64 63 63 65 65 68 66 66 61 60
59 59 60 61 64 66 68 70 72 71 72 73 71 71 70 72 70 70 69 66 64 68 68 65 63 62 65 65 59 60 57 58 60
61 62 63 64 65 67 69 70 70 71 72 72 71 70 70 69 68 69 68 63 59 47 48 47 47 45 53 57 48 45 44 43 45
57 61 62 62 63 65 68 69 70 71 72 72 71 69 69 67 64 65 65 65 63 61 51 44 42 42 44 47 46 42 41 41 42

GFSFLT1_sfc_dewp_006.txt.gz
Dewpoint
46 49 49 51 56 59 64 65 67 70 73 75 77 76 77 77 76 74 74 75 72 72 70 71 72 73 74 74 71 71 71 70 69
38 47 50 52 56 59 63 65 67 70 73 75 77 76 77 77 77 75 74 75 75 73 74 72 73 72 74 72 71 71 72 68 68
36 39 50 52 53 59 62 64 66 69 72 75 77 77 77 76 77 76 75 75 75 73 73 73 71 73 71 72 71 71 71 68 69
35 38 49 49 53 56 62 64 65 67 70 74 75 76 76 76 76 76 76 76 76 74 75 73 73 71 72 72 70 71 70 69 68
38 40 44 49 53 55 59 62 63 66 68 71 74 75 76 76 76 77 76 75 76 75 76 74 72 73 72 71 69 70 69 67 65
44 48 51 50 51 55 57 59 62 64 67 68 72 74 74 75 75 75 76 76 75 75 75 74 73 72 72 70 68 69 68 68 67
42 52 57 52 52 57 56 60 63 64 66 67 69 72 72 73 74 75 74 75 76 75 75 74 74 72 72 70 68 68 67 68 67
45 49 54 56 58 61 61 62 64 64 64 65 66 70 72 73 75 75 75 75 75 75 76 75 75 73 71 69 66 65 67 67 67
43 45 46 56 59 63 66 63 64 63 63 64 66 69 70 72 74 75 75 75 76 76 76 75 75 71 69 68 64 62 64 67 66
43 44 46 53 60 61 63 64 64 63 64 65 66 69 71 72 74 75 75 75 76 76 76 75 73 70 68 66 67 61 62 64 66
43 45 44 47 40 60 65 63 62 64 65 68 68 73 72 73 75 75 75 75 75 76 74 73 72 70 67 66 66 60 60 63 64
39 39 50 48 41 50 66 65 66 68 67 67 72 71 74 74 77 76 76 75 75 74 73 72 71 69 67 67 67 59 59 61 64
34 33 38 54 54 55 66 68 66 68 69 69 69 72 74 77 77 77 75 74 73 72 72 72 71 68 68 65 69 58 57 60 63
57 43 48 58 65 65 69 69 68 69 70 71 71 75 75 77 77 76 74 72 72 72 72 73 70 67 67 68 68 67 55 56 64
57 57 54 60 69 71 72 71 72 73 73 75 76 76 76 77 75 72 71 72 72 72 71 69 69 68 68 71 71 63 55 55 57
58 57 62 62 68 72 73 75 73 73 75 75 75 75 76 75 73 71 71 72 70 69 70 68 67 67 69 69 69 67 57 54 54
62 63 65 66 67 69 71 73 73 75 75 75 75 75 73 72 71 72 73 72 70 68 68 67 66 69 69 69 69 67 64 61 60
64 66 68 69 70 71 72 75 74 74 75 75 73 72 71 70 70 70 70 63 62 67 59 60 69 71 69 66 66 66 62 62 63
63 65 66 67 70 71 71 73 73 74 75 74 72 70 70 70 70 69 66 61 57 46 47 45 46 47 57 58 51 49 47 45 45
61 63 66 68 69 70 71 71 71 73 74 73 72 70 71 69 68 69 66 64 62 57 50 44 43 43 44 49 46 43 42 42 42

GFSFLT1_sfc_dewp_009.txt.gz
Dewpoint
46 47 46 49 56 58 60 62 66 69 72 72 73 74 74 72 73 69 69 71 71 70 70 70 71 71 70 69 67 68 68 66 66
45 45 47 49 53 57 60 62 67 68 72 72 73 74 74 73 73 72 71 72 73 71 68 70 70 72 71 69 67 68 67 66 64
43 45 47 49 52 57 60 62 65 68 71 73 74 73 75 74 73 71 71 72 72 71 69 70 69 71 72 70 67 67 67 64 66
41 45 46 49 52 56 60 62 65 67 70 72 74 74 74 74 74 73 72 73 72 71 71 70 70 70 72 70 68 68 67 64 64
38 44 46 49 51 55 60 62 63 66 71 72 73 74 74 74 74 74 73 72 72 73 71 70 70 70 69 70 68 68 67 65 64
41 44 50 51 51 56 60 61 62 65 68 72 73 74 74 74 74 74 74 72 74 74 70 71 70 68 69 69 68 67 67 65 64
40 42 51 51 52 56 58 61 62 63 67 70 73 74 74 73 73 74 74 74 72 74 73 72 69 69 69 69 68 67 67 66 65
42 44 52 52 53 54 58 60 62 63 65 67 71 72 73 72 73 73 74 74 74 72 73 73 72 70 70 69 67 66 66 66 65
34 47 54 54 55 54 56 58 61 62 64 66 68 71 72 72 72 73 73 74 74 74 72 73 73 71 70 69 66 64 65 66 65
32 40 49 52 54 61 56 58 60 62 64 65 66 69 71 71 71 72 72 73 73 74 73 74 74 71 70 68 67 62 63 65 65
33 37 44 51 54 58 64 59 60 61 63 65 66 67 69 70 71 71 73 73 73 74 74 74 72 70 69 68 67 60 61 63 65
31 35 35 43 50 57 61 62 61 60 61 63 64 65 67 69 70 72 73 73 73 74 74 72 71 70 67 66 66 60 58 61 63
45 42 39 38 49 50 62 62 61 61 61 62 62 63 66 69 70 72 74 73 74 73 72 71 71 69 67 64 66 59 58 59 62
55 54 51 43 49 54 62 64 62 61 61 61 64 63 71 73 74 74 74 73 71 71 70 71 70 69 66 65 65 62 56 56 61
55 61 52 67 61 64 68 67 66 65 62 65 72 73 76 76 74 73 72 70 70 70 70 69 67 66 65 66 67 60 55 55 57
57 62 66 68 70 72 73 71 69 71 74 74 74 76 75 72 72 71 70 70 69 69 67 66 66 65 65 66 66 64 56 54 54
65 65 67 69 70 70 71 73 73 73 73 74 75 74 72 70 70 70 70 69 68 68 68 67 66 65 65 65 65 62 59 56 56
63 67 69 70 70 72 72 72 73 73 73 74 72 71 70 70 70 70 61 55 57 62 54 61 66 66 65 63 64 64 60 58 60
60 61 64 69 70 71 72 73 73 73 72 71 70 69 69 69 69 62 59 57 53 45 46 45 45 51 59 54 51 53 51 50 51
58 59 59 66 69 70 70 71 71 72 71 70 69 69 69 68 65 63 62 59 57 52 48 45 43 43 49 50 47 47 44 43 44

GFSFLT1_sfc_dewp_012.txt.gz
Dewpoint
48 45 49 52 54 57 57 60 64 67 69 68 69 70 71 71 71 70 70 69 71 70 70 70 71 71 70 67 66 65 65 64 64
46 45 46 49 54 56 58 60 64 67 69 69 70 71 70 71 72 71 70 71 71 71 70 70 71 71 69 67 66 66 66 64 63
46 45 45 47 50 55 58 59 64 67 69 69 71 72 71 71 71 72 70 71 71 71 70 70 70 70 69 67 65 67 66 64 63
45 46 47 46 48 55 58 60 64 67 69 69 70 72 71 72 71 71 71 71 71 72 69 69 70 70 70 68 66 66 65 64 64
47 47 47 48 49 53 57 60 64 66 69 69 70 72 72 72 72 72 71 71 71 71 70 69 69 69 70 69 67 65 66 64 63
45 42 46 47 50 53 56 60 62 66 68 70 71 71 72 73 72 73 72 70 71 71 71 69 69 69 70 69 68 66 65 65 64
42 44 44 45 50 53 57 60 62 65 67 70 71 72 72 72 73 73 73 72 71 71 72 70 69 69 69 70 69 67 67 66 64
40 40 48 46 50 53 58 61 62 64 67 69 71 71 72 72 73 73 74 73 72 71 73 71 70 68 69 68 69 68 67 66 65
40 41 48 50 50 54 58 60 62 63 66 70 71 71 72 72 73 73 73 74 73 72 73 73 70 69 68 69 69 65 65 66 66
38 43 50 52 51 55 56 60 61 62 65 68 71 71 72 73 73 73 73 73 74 73 72 72 72 70 70 69 69 64 64 65 65
37 36 44 51 53 53 57 59 61 62 64 66 69 70 71 73 73 72 73 73 73 74 73 73 72 71 70 70 69 63 62 64 66
33 38 40 43 52 57 57 58 61 62 63 65 66 68 70 71 72 72 73 72 73 73 74 73 73 72 70 70 69 60 60 63 66
37 37 37 40 42 55 61 57 59 61 62 64 65 66 68 71 71 71 71 72 73 74 74 74 72 71 70 66 67 57 57 60 62
53 51 45 41 40 44 56 62 59 59 61 62 64 65 66 69 71 71 72 73 74 74 73 72 71 69 67 66 66 64 57 56 61
53 50 51 61 46 47 50 59 60 59 60 62 63 65 65 67 70 71 74 73 73 73 71 71 69 68 66 66 66 60 55 54 57
65 66 66 68 67 63 69 63 61 60 60 61 63 64 67 69 71 73 73 72 71 70 70 69 67 66 64 64 65 62 55 53 54
61 62 62 62 64 69 69 70 67 62 63 64 66 71 73 73 72 71 71 71 70 69 68 67 65 65 65 65 64 62 59 56 56
59 60 60 60 58 58 57 70 73 73 72 73 73 72 72 71 70 70 65 58 64 67 64 65 65 65 65 64 64 62 58 56 58
58 59 59 57 56 56 57 58 65 73 74 73 71 70 70 69 64 62 60 59 55 47 46 47 52 55 61 56 56 50 48 47 47
57 59 60 61 61 58 58 63 61 69 71 71 70 70 69 65 64 64 63 62 58 53 49 45 45 47 50 52 52 48 46 45 46

GFSFLT1_sfc_dewp_015.txt.gz
Dewpoint
46 49 51 53 54 56 59 60 64 66 66 67 70 71 70 70 69 69 69 68 68 69 70 71 71 71 71 70 65 65 64 63 63
45 47 50 51 53 54 57 60 62 65 66 66 68 70 70 70 70 70 69 69 69 69 70 71 71 71 71 69 66 65 64 63 63
45 47 47 50 52 53 56 58 60 64 66 66 66 69 70 70 70 70 70 70 69 69 70 70 70 71 70 69 66 65 64 63 63
46 47 47 47 50 52 54 57 59 63 66 66 66 67 68 69 70 70 70 69 70 70 70 70 70 70 70 69 66 66 65 64 63
43 47 48 47 47 50 54 57 58 63 65 66 66 67 69 69 69 70 71 70 70 70 70 70 70 70 70 69 67 65 65 64 64
41 46 47 47 46 48 53 57 58 62 65 66 67 68 69 69 70 70 70 71 70 71 70 69 69 69 70 69 68 65 65 64 64
43 47 47 47 49 49 54 57 59 62 65 66 67 68 69 69 70 71 70 70 70 70 71 70 69 69 69 70 69 67 66 66 65
42 43 45 46 48 50 54 56 59 63 64 67 67 68 69 69 70 71 71 71 70 70 71 70 69 69 69 70 69 69 67 67 65
31 39 41 43 45 47 52 55 59 61 65 66 68 68 69 70 71 72 72 72 71 70 70 71 70 69 68 69 69 66 65 67 67
31 31 38 43 47 47 52 56 59 61 64 66 69 69 69 70 70 72 72 72 72 71 70 71 70 69 69 69 69 64 63 65 67
29 34 40 47 48 48 52 57 59 60 63 66 68 69 69 70 71 71 72 73 72 72 71 72 70 69 68 69 69 61 62 65 67
32 35 38 46 52 52 54 57 60 61 62 65 68 69 69 70 71 72 72 72 73 73 72 72 72 71 70 69 69 60 60 62 67
36 33 36 44 53 55 55 57 59 61 62 64 67 69 69 70 72 72 72 72 72 74 74 73 72 72 71 68 70 59 58 63 67
53 45 47 44 41 53 56 57 60 61 61 62 65 68 69 70 71 72 72 73 73 74 74 73 73 72 72 71 68 59 57 60 66
64 64 65 68 67 63 58 54 58 60 61 63 64 65 67 69 70 72 72 73 73 74 73 72 72 72 68 68 65 60 56 57 59
60 59 58 58 58 61 61 68 64 59 59 62 63 64 65 66 69 72 72 73 73 73 73 72 71 68 67 66 66 65 55 54 54
58 58 56 55 53 53 53 58 62 64 67 62 62 63 64 66 69 70 72 73 73 73 72 71 69 67 66 65 65 63 58 56 58
57 57 57 56 55 55 54 57 58 58 57 60 62 64 66 68 70 72 70 62 69 72 68 68 68 67 66 65 64 63 56 56 58
57 58 58 58 58 56 55 58 63 62 60 60 66 69 71 71 71 63 61 60 57 50 54 55 54 55 62 62 56 49 49 48 48
58 60 61 61 61 62 61 62 63 62 62 61 59 69 71 67 63 64 65 66 64 60 56 48 45 49 52 54 53 47 45 44 45

GFSFLT1_sfc_dewp_018.txt.gz
Dewpoint
51 54 56 58 58 59 61 62 63 66 68 68 69 69 69 70 70 69 69 69 69 69 70 71 73 72 72 71 69 68 67 65 64
45 49 53 55 58 59 60 61 63 65 67 68 69 69 69 70 70 70 69 70 70 69 71 71 72 72 72 71 69 68 67 65 65
45 46 49 52 54 56 58 60 62 65 66 67 68 69 70 69 70 70 70 70 70 70 70 72 72 72 72 71 70 68 67 65 65
45 46 47 48 52 54 56 58 61 63 65 66 67 69 70 70 70 70 70 70 70 70 70 71 72 72 72 71 70 68 66 66 65
46 48 49 49 50 52 54 56 58 61 64 65 66 67 70 70 70 71 70 70 70 71 70 71 71 72 72 71 70 68 67 66 65
41 47 50 51 50 50 53 55 57 60 62 64 65 66 68 69 70 70 70 70 70 71 71 71 71 71 71 71 70 68 68 67 66
38 42 46 48 50 50 52 55 58 60 61 63 65 65 66 68 69 69 70 71 71 70 71 71 71 71 71 71 70 69 68 67 67
35 38 44 50 51 51 54 57 59 60 61 64 65 66 66 67 69 69 70 71 71 71 71 71 70 71 71 71 70 69 68 68 67
32 36 43 49 52 53 55 57 59 60 62 64 66 67 67 68 69 70 70 70 71 71 71 71 71 70 70 70 70 66 65 67 68
29 32 40 47 50 52 53 55 59 60 62 65 66 67 68 69 70 70 71 71 71 71 71 71 71 70 70 70 71 64 64 65 69
27 30 37 42 44 49 51 53 55 60 63 66 67 67 68 69 70 70 71 72 71 71 71 71 71 70 70 70 70 63 62 65 69
29 31 35 39 45 49 53 54 57 61 63 66 67 68 68 69 70 70 71 71 72 72 71 71 71 71 70 70 70 61 60 63 69
35 41 41 44 51 56 56 59 61 61 63 65 66 68 69 70 71 71 71 72 72 72 72 72 72 71 71 68 70 59 58 63 68
64 66 65 51 53 54 55 61 62 63 64 64 66 68 70 70 71 72 71 72 73 73 73 72 72 71 71 71 70 65 57 59 68
61 62 65 66 65 66 68 64 63 63 64 66 68 69 70 71 71 71 71 72 73 73 73 72 72 71 71 72 71 61 56 58 62
58 57 57 56 55 58 61 66 66 65 66 67 66 68 69 70 71 72 73 73 73 72 73 72 72 71 71 70 66 63 56 56 59
56 56 56 55 54 55 56 59 60 61 62 67 67 65 67 69 70 71 72 73 72 72 73 72 71 71 70 68 65 64 62 63 61
57 57 57 57 56 56 57 59 62 63 63 61 65 68 66 68 68 69 72 73 72 73 74 71 72 71 69 66 65 64 58 59 62
60 61 61 62 63 63 62 63 63 62 62 62 61 65 68 67 68 70 72 64 60 51 57 53 53 55 63 64 56 52 53 51 49
59 61 61 62 62 63 64 65 63 61 62 63 62 61 68 69 68 68 64 66 65 60 56 49 50 52 54 56 57 53 47 45 47

GFSFLT1_sfc_dewp_021.txt.gz
Dewpoint
55 58 59 60 63 65 67 67 68 68 70 72 73 73 74 74 75 72 72 73 70 70 69 70 73 74 75 75 74 74 73 71 69
49 54 57 59 62 64 66 67 68 69 69 71 72 72 73 74 74 74 72 74 74 70 74 70 73 74 74 75 74 74 74 70 70
43 47 52 56 60 62 64 65 67 68 69 70 71 72 72 72 73 74 74 74 74 74 73 73 73 73 74 74 74 74 74 71 71
41 45 48 51 57 60 63 63 65 66 68 70 71 72 72 72 72 73 73 73 74 74 74 74 74 74 74 74 74 74 74 73 71
41 48 51 51 52 56 59 63 63 64 66 67 69 71 72 72 73 73 73 73 74 74 74 74 75 75 74 74 74 74 73 72 71
42 47 52 53 51 54 58 60 63 63 65 65 67 70 71 72 72 73 73 73 74 74 74 75 73 74 75 74 73 74 73 73 72
40 45 50 53 55 58 58 60 63 64 64 65 66 67 69 71 72 72 72 74 74 74 75 74 74 75 74 74 73 73 72 72 72
40 41 43 48 52 60 62 62 63 64 64 66 67 69 69 70 72 73 73 74 74 74 74 74 74 75 74 74 73 71 73 72 72
39 42 41 45 51 57 60 62 63 64 65 65 68 69 69 70 72 73 74 74 74 74 74 74 74 74 74 74 71 67 67 71 72
41 41 43 46 48 54 59 60 63 63 65 67 68 68 70 71 72 73 73 74 74 74 74 74 74 74 74 74 74 64 65 67 71
40 41 42 47 41 50 61 58 56 63 64 68 69 70 70 71 72 72 73 73 73 74 74 74 74 74 74 74 74 63 63 65 72
41 42 45 45 43 46 60 61 63 65 65 68 69 69 70 71 72 72 73 73 73 73 74 74 74 74 74 74 74 62 61 64 70
36 38 40 44 47 51 56 59 58 64 64 67 68 69 70 72 73 73 73 73 74 74 74 73 72 73 74 71 74 62 60 64 69
58 58 49 48 56 60 62 63 61 65 65 67 67 69 71 72 73 74 74 74 74 74 74 73 74 73 74 74 72 72 58 59 71
65 65 62 61 64 66 67 65 66 66 68 69 70 71 72 74 74 72 72 75 75 75 74 74 73 73 73 72 74 65 57 57 63
63 62 63 66 66 66 67 68 69 68 70 69 70 71 73 73 74 74 74 74 74 73 74 72 72 71 71 71 72 73 56 56 59
58 57 57 57 59 61 63 65 66 67 67 71 71 71 72 73 73 74 75 73 73 73 72 72 71 72 71 71 72 69 63 63 63
59 59 59 61 63 63 64 65 65 64 65 65 65 68 70 70 70 72 73 74 73 73 74 71 71 72 72 72 67 64 60 62 64
62 62 64 65 66 66 65 64 64 65 66 65 65 65 63 63 65 67 69 71 74 54 52 56 56 57 67 68 59 51 51 52 52
60 62 62 62 63 64 66 66 67 67 68 68 66 65 65 65 66 66 66 71 72 70 62 48 51 52 53 53 54 52 51 51 51

GFSFLT1_sfc_dewp_024.txt.gz
Dewpoint
46 54 56 57 60 62 64 64 67 69 71 74 74 74 76 77 77 72 72 74 70 69 67 68 72 73 74 75 75 75 76 73 72
37 51 55 57 58 61 64 65 68 70 72 74 74 72 76 77 77 76 72 76 75 71 74 69 72 73 74 74 74 75 76 72 74
36 45 53 55 58 59 62 64 66 69 71 73 74 74 74 74 75 76 76 76 76 76 74 74 72 73 74 74 74 75 76 73 74
35 42 47 51 54 58 59 62 65 67 69 71 72 73 74 74 74 74 75 75 76 77 75 76 75 75 74 73 74 75 76 75 73
35 39 43 45 48 53 57 60 63 64 66 67 70 72 75 75 75 75 74 76 76 77 77 76 76 75 75 74 73 75 75 75 72
38 41 46 48 47 49 54 58 62 62 64 65 66 71 71 72 73 74 75 76 76 77 77 77 74 76 77 75 74 74 75 75 74
32 41 44 45 48 49 53 58 64 66 62 63 64 66 68 72 74 74 74 76 76 76 77 77 77 77 77 76 74 74 74 74 74
32 35 39 43 49 54 59 60 64 67 65 65 65 68 67 72 74 76 76 76 77 77 77 77 77 77 77 76 74 71 75 75 74
33 34 34 34 40 52 55 59 62 62 67 65 67 70 70 72 75 76 76 77 77 77 77 77 77 76 76 76 72 66 66 72 74
32 35 37 39 40 44 50 51 59 62 65 66 69 71 72 74 75 76 76 76 77 77 77 77 77 77 77 77 76 64 64 67 73
34 34 36 40 35 36 42 46 44 59 62 70 70 72 73 74 74 75 76 77 76 77 77 76 76 77 77 77 76 65 62 65 74
36 38 38 38 37 39 50 48 51 56 62 66 68 72 73 74 74 74 75 76 76 77 76 76 76 76 77 77 77 63 61 65 72
33 35 38 40 40 43 45 52 52 57 60 64 68 71 71 74 75 75 75 76 77 77 76 76 73 75 76 73 77 65 60 65 69
51 49 48 49 49 49 53 57 57 59 62 63 67 69 69 72 75 76 76 77 77 76 76 74 76 75 76 77 75 75 58 60 72
55 53 54 58 54 54 60 64 64 63 69 67 69 70 70 73 75 72 71 77 77 76 76 76 76 76 74 74 76 67 59 58 63
58 59 61 62 58 63 66 68 68 68 70 70 70 71 72 72 73 73 75 76 76 73 76 72 72 71 71 71 72 74 61 57 59
61 61 62 63 65 64 67 71 71 72 72 72 72 72 73 73 73 73 74 71 72 71 70 71 70 70 71 70 71 71 72 65 62
62 62 62 63 64 65 66 67 67 66 67 68 71 72 71 72 71 73 72 74 71 70 73 68 70 70 70 71 70 71 67 65 66
64 65 66 66 67 67 65 66 67 69 69 69 67 66 62 62 62 64 67 68 71 55 57 53 51 51 62 70 65 54 52 52 53
62 64 64 65 66 66 68 67 65 67 69 68 68 67 68 65 64 65 64 65 65 65 64 52 52 49 49 53 57 50 50 49 50

GFSFLT1_sfc_dewp_027.txt.gz
Dewpoint
41 44 50 54 58 60 61 63 66 68 73 76 77 77 77 77 78 72 71 73 68 67 65 66 74 77 76 76 76 75 77 73 73
36 43 48 54 57 60 62 62 67 70 72 75 77 76 77 78 77 77 73 75 75 71 74 67 74 75 76 76 76 77 78 72 75
35 38 47 52 55 58 62 61 64 69 71 74 76 75 76 76 77 78 77 77 77 75 74 76 75 75 75 76 76 77 78 74 76
34 35 45 51 54 56 60 61 62 65 69 73 75 75 76 76 76 76 77 76 77 77 77 78 76 77 76 76 76 77 78 77 75
33 36 43 50 52 54 56 60 62 63 66 67 72 74 76 76 76 76 76 77 76 78 78 78 78 77 77 77 76 77 77 76 73
37 39 41 45 49 52 54 56 62 62 65 65 66 72 72 75 75 75 75 77 77 78 78 78 77 77 78 77 76 76 77 77 76
36 39 43 44 44 46 51 57 63 65 63 64 65 67 69 73 75 75 75 76 78 77 78 78 78 77 78 78 77 76 76 76 77
35 39 42 43 45 50 54 60 65 67 63 66 66 69 69 71 75 76 77 77 77 78 78 78 78 78 77 78 77 73 76 75 76
32 34 35 38 42 47 53 55 62 65 68 66 67 70 70 72 75 77 77 78 78 79 78 78 78 78 77 77 75 68 67 73 75
33 33 33 36 37 38 47 52 56 59 67 68 69 70 72 73 75 76 77 78 78 78 78 78 78 78 78 77 77 66 64 67 74
35 35 36 37 32 36 42 39 38 56 57 70 71 72 72 74 74 76 77 78 78 78 78 78 78 78 78 78 77 67 62 65 73
36 36 37 37 34 36 48 42 44 48 57 65 71 71 73 73 75 75 77 77 78 78 78 78 77 78 78 78 78 65 62 64 72
48 40 42 42 38 39 40 47 44 46 49 60 69 71 73 75 76 76 77 77 78 78 78 77 76 77 78 74 78 67 61 63 71
57 57 56 53 54 54 52 52 50 59 58 60 66 69 71 75 76 77 77 78 78 78 78 77 77 77 77 78 77 77 61 59 74
60 59 56 51 54 57 57 56 59 66 68 69 72 72 73 75 77 74 73 78 78 79 78 78 77 77 76 75 77 69 64 58 62
61 59 60 59 59 60 61 67 68 68 74 72 73 75 76 76 77 76 77 77 78 75 77 73 73 72 72 73 73 76 63 57 58
61 61 62 61 63 63 67 71 70 71 73 72 71 73 75 75 75 75 76 72 73 72 71 71 71 70 71 69 71 72 74 70 64
62 62 62 64 66 66 68 69 69 69 70 73 72 73 73 73 72 73 74 75 70 70 73 68 69 70 69 69 69 69 66 67 72
65 66 68 68 68 67 67 68 69 70 70 70 69 71 70 68 68 69 71 70 72 63 62 58 54 50 60 70 62 55 52 51 55
62 64 65 66 66 67 67 66 67 69 70 70 69 68 68 63 61 61 62 64 64 64 64 55 54 50 48 48 46 47 49 47 50

GFSFLT1_sfc_dewp_030.txt.gz
Dewpoint
41 46 50 56 61 61 62 63 66 68 73 74 75 75 75 74 77 73 71 75 70 71 70 70 75 75 76 76 76 76 78 76 75
38 42 46 55 59 62 63 63 66 68 72 74 75 74 75 75 75 76 71 73 75 73 74 71 75 75 75 75 76 76 77 75 76
38 42 46 53 58 61 62 62 64 67 71 73 75 75 75 75 74 75 75 73 75 73 75 74 77 75 75 76 76 77 77 76 76
37 43 47 51 57 60 62 62 63 65 68 72 74 75 75 75 75 75 75 74 74 76 74 78 74 77 76 76 75 76 77 75 75
38 42 49 50 54 59 61 62 62 64 67 69 73 75 75 75 75 76 75 74 74 75 77 75 77 76 76 76 75 76 75 75 73
42 46 47 50 53 57 60 62 63 63 66 66 71 74 75 75 75 75 75 76 74 75 75 77 75 77 76 75 75 75 76 75 75
41 48 50 51 53 57 59 62 65 65 65 66 68 71 73 74 75 75 75 75 76 75 76 75 76 76 76 76 75 75 75 75 75
44 47 50 53 53 59 61 64 66 67 66 67 67 69 72 73 74 75 75 76 76 77 76 76 76 76 76 76 76 74 75 75 75
42 45 45 49 54 58 61 66 67 67 67 68 68 70 70 72 74 75 76 76 76 76 76 76 76 76 76 76 75 70 68 73 74
39 36 38 45 51 55 59 60 69 68 68 69 71 71 71 72 74 74 75 76 76 76 76 77 77 76 76 76 76 67 66 68 74
39 38 44 51 38 48 57 48 51 63 68 72 71 73 73 75 75 74 75 76 76 77 76 77 76 77 77 77 76 67 64 66 73
38 44 47 47 42 45 60 54 57 60 62 70 71 70 73 73 75 75 75 76 76 77 77 77 77 77 77 77 77 65 63 64 72
56 56 58 60 58 57 53 64 56 62 61 67 70 70 71 74 74 75 75 76 77 77 77 77 76 77 77 74 77 68 61 64 73
58 60 60 61 62 61 68 68 64 69 68 65 69 71 72 74 76 75 75 77 77 77 77 77 77 77 77 77 76 76 61 59 74
59 61 60 58 62 63 65 68 69 70 72 75 75 75 73 75 77 74 74 77 78 78 77 77 77 77 76 76 77 68 65 58 61
62 63 63 62 64 67 71 72 75 74 77 78 77 79 77 77 78 77 76 77 77 76 77 76 76 75 75 75 76 76 63 59 58
63 65 64 63 65 67 73 75 76 76 77 78 78 79 79 79 78 77 77 76 76 75 75 75 75 74 74 74 74 74 75 72 65
61 65 68 70 70 69 70 71 71 71 73 75 75 77 77 78 76 77 77 76 74 75 75 71 73 73 73 72 73 66 57 60 71
63 64 66 68 70 68 70 70 70 71 72 73 75 76 74 73 72 73 73 74 74 65 61 57 49 50 62 68 53 48 46 47 50
61 64 65 66 68 68 68 68 68 69 70 72 73 73 75 68 68 70 74 74 74 73 61 52 51 48 47 46 45 45 44 43 44

GFSFLT1_sfc_dewp_033.txt.gz
Dewpoint
51 56 57 57 57 58 59 62 66 70 71 71 73 72 70 70 74 71 68 72 67 71 69 71 72 73 74 73 74 74 73 73 73
50 54 55 56 57 58 59 62 65 68 71 71 72 72 72 70 71 74 68 67 72 67 71 69 72 72 75 74 73 73 74 73 72
42 53 53 57 57 58 59 60 64 66 71 71 71 71 72 72 70 71 73 69 68 72 68 70 70 73 72 74 74 74 73 74 74
36 45 54 57 58 59 60 60 63 66 69 71 72 72 71 72 72 70 73 72 69 71 72 71 72 73 72 73 73 75 73 73 73
38 43 53 58 59 59 60 60 62 64 67 71 72 72 72 72 73 72 70 73 73 68 73 71 74 74 73 74 73 73 74 73 73
37 46 52 56 59 59 60 59 60 62 65 69 71 72 73 72 72 73 72 71 71 74 69 74 71 75 74 74 74 74 73 74 74
39 48 50 54 57 59 60 60 60 62 63 66 70 71 72 73 73 73 73 73 72 70 73 71 75 71 74 74 74 73 74 73 73
44 46 50 52 55 58 60 60 60 61 62 64 66 71 72 72 73 73 73 73 74 73 71 72 72 74 72 74 73 73 73 73 73
39 46 51 51 54 57 59 61 61 62 62 64 65 68 71 72 73 73 73 73 73 74 74 71 73 73 72 73 74 69 68 72 73
37 37 38 44 50 55 60 62 63 63 63 64 65 66 68 71 72 73 73 73 73 73 73 74 72 72 74 72 73 67 66 68 73
37 40 44 45 42 42 50 59 64 64 65 66 65 66 67 68 71 72 73 73 73 73 73 73 74 74 73 74 74 66 64 66 72
57 57 58 58 57 58 54 51 56 66 67 67 69 66 68 69 71 71 72 73 73 73 73 73 73 74 74 74 74 64 63 64 71
59 60 59 58 58 58 61 60 59 61 65 66 66 68 71 73 71 72 72 72 73 73 74 74 74 74 75 72 75 66 61 64 72
61 62 61 59 59 57 59 61 59 58 62 66 68 69 70 72 73 73 73 73 73 74 74 74 74 75 75 75 74 74 61 60 73
62 65 62 63 63 63 58 60 58 60 64 66 67 69 70 72 73 72 74 75 75 75 75 75 75 75 75 75 76 66 62 59 61
59 64 67 68 66 65 73 73 71 68 71 72 70 73 71 73 73 75 73 74 76 75 75 75 75 75 75 75 76 76 62 59 59
60 61 63 66 68 69 70 71 71 71 71 72 73 71 74 74 75 75 74 76 75 75 75 75 75 75 74 75 74 75 72 69 64
59 59 61 64 65 68 69 70 70 71 71 71 71 72 75 75 75 75 75 74 74 75 72 72 75 75 74 73 68 60 53 55 66
61 61 62 62 64 67 68 68 67 68 70 70 70 73 73 73 73 75 74 74 68 53 54 51 49 52 58 54 52 48 46 45 46
60 62 62 63 65 66 66 67 67 68 69 69 69 69 70 70 68 72 72 73 70 60 56 48 47 48 50 50 48 44 43 43 46

GFSFLT1_sfc_dewp_036.txt.gz
Dewpoint
55 56 56 56 57 58 59 63 65 65 66 68 70 70 70 70 70 69 68 68 67 67 70 69 70 73 73 73 73 72 72 71 71
55 56 56 55 57 58 59 63 65 66 66 66 70 69 70 71 71 70 69 68 69 68 70 71 71 71 73 73 73 72 72 71 71
55 57 55 54 57 58 59 62 65 67 67 66 69 70 69 69 70 73 70 68 69 71 69 70 71 71 73 73 72 72 73 72 72
53 55 54 53 56 58 58 60 64 68 68 68 69 71 71 70 69 69 73 70 67 68 70 69 70 71 72 73 73 72 72 72 73
52 53 54 54 57 57 58 59 62 66 69 69 70 71 71 71 71 70 69 73 70 68 69 71 69 72 72 72 73 73 72 72 72
48 51 53 55 56 57 58 58 61 65 69 70 70 70 70 71 71 71 69 70 72 71 68 70 72 73 72 72 72 72 73 72 72
40 49 54 55 56 57 58 58 60 64 65 70 70 70 71 70 71 71 71 70 70 72 72 68 70 73 73 73 73 72 72 73 73
43 52 54 55 57 57 59 59 59 63 64 68 70 71 71 71 71 72 72 72 71 70 71 73 69 70 72 74 73 73 73 72 72
46 52 55 56 57 58 59 59 60 62 63 66 69 70 71 71 72 72 72 73 73 71 71 70 72 71 72 72 73 69 68 71 72
44 51 55 57 58 58 59 60 60 61 62 64 68 70 70 71 72 73 73 73 73 73 73 72 70 70 72 72 72 66 66 68 72
50 51 50 48 55 58 61 61 60 61 62 63 64 66 70 71 72 72 73 73 73 73 73 73 73 71 71 72 72 65 64 66 72
58 56 57 57 57 54 54 62 62 62 62 63 64 65 66 70 71 72 73 72 73 73 73 72 73 73 73 71 72 63 62 64 71
64 60 58 56 55 58 58 58 62 63 62 63 63 64 66 67 70 71 72 72 72 73 73 73 73 72 73 71 73 63 61 64 72
65 65 64 63 65 63 58 57 59 62 64 64 65 66 66 68 68 70 71 72 72 72 73 73 73 73 73 74 73 73 61 60 73
60 63 66 68 70 70 71 68 64 68 67 68 67 69 70 70 70 69 70 71 71 72 72 73 73 73 74 74 75 66 61 59 61
57 60 62 65 68 69 69 70 70 69 70 71 70 69 69 70 71 72 73 73 72 72 73 72 73 73 74 75 75 76 61 59 59
58 59 61 63 64 68 68 69 69 69 69 70 70 70 71 71 71 72 73 73 74 73 74 74 74 74 75 75 75 75 70 68 65
59 60 61 62 64 65 66 67 66 67 68 69 69 70 72 72 72 72 73 66 65 73 74 73 75 75 75 74 72 64 56 59 66
59 60 61 63 63 65 66 66 66 67 68 69 68 68 71 72 73 73 73 66 59 50 48 49 50 52 57 54 52 49 48 46 46
58 59 59 60 62 64 65 65 65 66 68 67 66 67 64 70 70 73 72 64 60 57 56 49 46 47 48 50 49 46 44 47 47

GFSFLT1_sfc_dewp_039.txt.gz
Dewpoint
53 52 57 58 58 59 60 61 63 64 66 65 66 67 67 67 66 67 67 67 67 67 68 69 70 72 72 72 72 72 71 70 70
51 51 54 57 58 58 59 61 63 64 65 66 66 67 68 68 68 68 67 68 67 67 68 69 69 71 72 72 72 72 71 70 70
51 51 53 56 57 58 58 60 63 64 65 66 67 67 68 68 68 69 68 68 68 67 68 70 70 70 71 72 72 72 71 71 70
49 51 54 56 57 57 58 59 63 63 64 65 67 68 68 68 69 69 69 69 69 69 68 69 71 71 71 71 72 72 72 71 71
50 53 55 56 56 56 58 58 62 64 64 64 65 68 68 68 69 70 71 70 69 68 70 69 69 71 71 71 72 72 72 71 72
47 53 55 56 56 56 58 58 61 64 65 65 65 68 68 68 68 68 69 72 71 68 68 69 69 70 71 71 72 72 72 71 71
42 51 55 56 55 54 57 58 59 63 66 67 66 67 69 69 69 69 69 69 71 71 69 68 70 70 71 71 71 72 72 72 71
30 45 54 55 54 54 57 58 59 63 66 68 68 68 69 70 71 71 70 69 69 71 72 70 69 70 71 72 72 71 72 72 72
39 48 51 53 54 55 56 58 59 61 65 68 69 69 69 70 70 71 71 71 70 69 70 72 71 69 69 71 72 68 68 70 71
35 45 50 51 54 55 56 58 58 60 64 67 69 69 69 70 70 70 71 71 71 71 69 70 71 71 70 69 70 65 66 68 72
54 48 50 53 55 56 57 58 59 60 64 65 68 69 70 70 71 71 71 71 72 72 72 70 70 70 70 71 71 65 63 66 72
60 56 56 55 57 58 58 59 60 61 63 64 66 68 69 70 71 71 72 71 71 72 72 73 72 71 70 69 70 63 62 64 71
65 67 63 57 57 60 61 61 60 61 62 62 64 66 68 70 71 71 71 72 72 72 72 72 73 73 73 69 71 63 61 63 71
62 66 69 69 63 59 57 60 61 60 61 62 62 64 65 68 70 71 72 72 72 72 72 72 72 72 73 73 72 71 60 59 71
59 62 65 68 68 69 69 68 65 66 68 70 66 65 65 66 67 70 71 71 72 72 72 72 72 72 72 73 73 66 60 59 60
59 61 63 66 68 68 68 69 68 68 68 70 68 68 68 67 68 68 68 71 71 72 72 71 72 72 72 73 74 74 61 58 59
59 61 62 64 66 66 66 66 67 67 68 69 69 69 69 69 70 71 70 70 70 71 71 71 72 72 73 73 74 75 75 70 64
57 58 60 62 64 65 65 65 66 66 68 68 68 68 70 71 70 69 69 59 61 69 71 69 73 73 74 74 74 73 62 64 70
56 56 57 60 61 62 64 64 64 66 67 67 66 66 66 68 71 70 66 59 57 49 47 47 49 54 62 55 52 47 47 47 48
52 50 54 59 61 62 63 63 63 66 66 65 64 64 65 64 68 72 66 61 60 58 55 49 45 45 46 47 46 45 44 45 45

GFSFLT1_sfc_dewp_042.txt.gz
Dewpoint
58 59 60 60 61 61 62 63 63 64 65 65 65 66 67 67 67 67 67 68 68 68 69 70 72 72 73 73 73 73 73 71 70
56 58 59 60 60 61 61 63 63 64 65 65 65 65 67 67 67 67 67 69 69 68 70 70 71 72 73 73 73 73 73 72 72
54 56 57 57 59 60 61 62 63 64 64 65 65 66 66 67 67 68 68 69 69 69 69 71 71 71 72 73 73 73 73 72 72
52 54 54 54 57 59 60 61 63 63 64 65 65 66 67 67 67 68 69 69 69 69 69 70 71 71 71 72 73 73 73 73 72
52 54 53 53 54 58 59 60 61 63 64 65 66 67 67 67 68 69 69 69 69 70 69 70 71 71 71 72 72 73 73 72 72
48 53 54 53 53 56 58 59 61 63 64 64 65 67 67 67 68 69 69 69 70 70 70 70 70 71 71 72 72 73 73 73 72
40 53 54 54 54 57 58 60 62 63 63 64 65 67 67 67 68 69 70 70 71 70 70 70 70 71 71 72 72 73 73 73 73
34 43 53 56 56 57 59 60 61 64 64 65 65 66 67 68 69 70 70 71 72 71 70 70 70 71 71 71 71 71 73 73 73
47 41 40 53 57 57 58 60 61 63 65 65 66 66 67 69 69 70 70 70 70 72 72 71 71 70 70 71 70 67 67 71 73
61 52 39 41 56 57 57 59 61 63 65 67 67 67 68 69 70 70 71 71 70 70 71 72 71 71 71 71 72 65 65 67 72
61 62 52 47 55 56 57 58 59 62 65 68 69 69 69 70 71 71 71 71 71 71 70 70 72 72 71 71 71 64 63 65 72
61 66 58 55 56 57 58 59 61 63 66 69 69 69 70 70 71 70 71 71 71 72 72 71 70 71 72 72 72 62 62 64 71
62 66 66 59 60 60 60 61 61 64 65 67 69 69 70 71 71 71 71 71 72 72 72 72 72 71 72 69 71 63 61 63 70
63 66 68 65 62 61 62 62 62 63 65 65 67 69 70 71 72 72 72 72 72 72 72 73 73 73 73 73 71 71 60 59 71
61 63 66 67 68 67 66 64 63 64 65 67 67 68 70 71 72 71 72 72 73 73 73 73 73 73 73 74 74 65 62 58 60
57 60 62 66 65 66 67 69 69 68 70 72 68 67 68 69 71 72 72 73 73 72 73 72 72 72 72 73 74 74 60 58 58
54 56 60 62 65 65 65 67 68 69 70 71 70 69 69 69 69 69 71 72 72 72 72 72 72 73 73 74 74 75 75 69 65
51 53 57 61 62 64 64 65 66 68 68 69 69 71 72 71 71 70 69 60 62 70 71 69 72 73 74 74 74 74 68 70 73
50 51 55 60 63 63 64 65 66 67 67 67 68 68 69 71 71 70 65 62 59 48 47 47 51 57 66 60 52 47 47 48 49
50 52 53 56 61 63 64 64 64 66 65 65 66 67 67 66 69 68 64 63 62 59 54 47 44 43 46 49 47 44 43 44 45

GFSFLT1_sfc_dewp_045.txt.gz
Dewpoint
59 60 60 61 62 63 65 66 67 67 69 70 70 71 72 73 73 68 68 71 68 67 67 68 73 74 74 74 75 75 75 73 73
58 60 60 61 62 63 64 65 67 68 69 70 70 69 71 72 73 72 70 73 72 69 72 68 72 73 74 74 74 75 75 73 74
55 58 60 61 62 62 64 64 65 67 68 69 70 69 70 70 71 72 72 72 72 72 71 72 71 73 73 74 74 75 75 73 74
51 56 59 60 62 63 64 64 65 66 67 69 69 69 70 70 70 71 71 71 71 73 72 73 73 74 74 74 74 74 75 75 74
44 54 58 60 61 62 62 64 64 65 66 66 68 69 70 70 71 71 70 71 71 73 73 73 73 73 73 74 73 74 74 74 72
49 53 56 58 59 61 63 64 65 65 66 64 65 68 68 69 69 70 71 72 72 73 73 73 71 72 73 73 73 74 74 74 74
38 50 56 58 58 60 63 64 66 66 66 65 65 66 67 69 70 71 71 72 73 72 74 73 73 73 73 73 73 73 73 73 74
39 40 49 57 58 61 64 65 66 67 66 67 67 69 68 69 71 72 73 73 73 73 73 73 73 73 73 73 72 70 73 73 74
54 54 49 52 58 61 62 64 66 66 67 67 69 70 69 71 72 73 73 74 74 74 73 73 74 73 73 73 70 66 66 71 73
59 60 62 60 53 61 62 63 66 66 67 68 69 70 71 72 73 73 73 74 74 74 74 73 74 73 73 73 74 65 64 67 71
60 61 62 63 61 54 63 61 62 66 67 69 69 70 71 72 73 73 73 74 74 74 74 74 74 73 74 74 74 65 63 65 72
61 62 63 66 65 51 62 63 65 67 68 69 69 70 71 72 73 73 73 73 74 73 73 73 73 73 74 74 74 63 62 65 72
62 65 66 65 60 52 62 64 64 67 67 69 69 70 71 73 73 73 74 74 74 74 74 73 71 72 74 71 74 65 60 64 70
61 64 66 64 60 63 64 66 65 67 69 69 70 70 71 73 74 74 75 75 75 74 74 74 74 73 74 74 73 73 60 58 71
57 62 65 66 64 64 66 67 67 68 70 72 73 73 73 74 75 72 72 75 75 75 75 74 74 74 73 73 74 66 62 58 60
52 59 64 66 67 68 68 67 69 69 71 73 73 74 74 74 74 74 75 75 74 73 74 72 72 72 72 72 73 74 61 58 57
47 52 62 65 66 67 69 71 71 72 72 71 72 73 74 74 74 73 74 73 73 72 72 72 71 71 71 72 73 74 74 72 67
51 51 53 63 65 66 67 69 69 69 71 73 70 71 71 72 71 72 73 73 69 72 74 69 71 72 72 72 73 73 69 70 75
51 52 53 55 61 66 66 67 67 68 68 69 72 73 71 68 68 69 71 67 63 48 48 47 51 56 67 68 54 52 51 51 55
51 52 52 52 54 58 65 65 64 65 68 68 69 69 69 72 69 70 69 67 67 64 54 47 44 44 49 53 52 45 45 45 46

GFSFLT1_sfc_dewp_048.txt.gz
Dewpoint
53 56 57 59 61 61 63 64 65 66 69 72 73 72 74 75 74 68 68 71 67 66 64 64 70 73 73 74 74 74 75 75 72
48 55 57 59 61 62 62 64 67 68 70 71 71 70 73 75 74 73 70 74 71 67 71 65 69 70 73 73 74 75 75 71 73
47 53 57 59 61 62 62 63 65 66 68 70 70 69 70 70 71 73 73 72 73 73 70 72 70 71 71 72 73 74 75 72 74
42 51 56 58 60 61 62 63 64 65 66 68 69 70 71 71 70 70 71 71 72 73 72 72 73 72 71 72 73 74 75 74 72
41 48 54 57 58 60 61 62 63 64 65 66 68 70 73 71 71 71 70 71 71 73 73 73 73 73 72 72 72 73 74 74 71
42 45 50 55 56 59 60 62 63 62 64 64 65 68 68 68 69 69 71 72 72 73 73 73 72 72 73 72 71 73 74 74 73
37 41 48 51 55 57 61 63 67 67 64 63 63 65 66 69 70 70 69 73 74 72 74 73 73 73 73 73 72 71 72 73 73
38 40 45 52 54 58 64 66 68 68 65 66 65 68 66 69 72 72 73 74 74 73 74 74 74 73 73 73 71 68 72 71 72
41 47 45 44 52 56 60 63 67 69 69 67 68 70 69 71 74 75 74 75 76 75 75 75 74 73 73 73 69 64 65 69 70
50 53 55 56 54 53 57 60 65 67 70 69 70 72 72 73 75 75 75 75 76 76 76 75 75 74 74 75 75 64 63 66 69
59 59 60 60 59 60 56 57 59 65 66 71 72 73 73 74 75 75 76 76 76 77 75 76 75 74 76 76 74 64 62 65 72
61 63 64 64 64 62 64 58 60 64 65 68 71 72 73 74 75 75 75 75 76 75 75 75 74 74 76 76 76 63 62 66 71
60 63 64 66 66 66 65 65 58 61 65 67 70 72 73 75 75 75 75 76 76 76 75 74 72 73 75 71 75 64 61 66 70
59 62 65 67 67 66 65 64 59 66 67 68 70 70 71 74 75 76 76 77 77 76 75 74 75 74 75 76 74 74 60 59 72
54 60 66 66 63 61 60 60 65 69 70 71 73 73 73 75 76 72 72 77 77 76 76 76 76 75 73 72 74 66 61 58 61
49 53 62 67 65 63 64 66 67 69 73 74 73 73 75 75 75 74 76 76 76 73 75 72 72 71 71 70 70 73 62 58 58
50 52 53 64 68 69 69 68 68 70 72 75 74 73 74 74 74 73 74 73 73 71 71 71 70 70 69 69 70 71 73 71 67
53 54 54 56 64 67 68 70 70 72 72 73 72 73 73 73 72 73 73 73 68 71 73 67 70 69 70 70 70 70 68 68 73
53 54 55 56 57 62 65 66 68 69 71 73 71 71 70 69 69 71 71 73 69 49 48 46 47 51 63 69 57 55 57 56 58
53 53 55 55 57 59 63 64 64 67 70 71 73 73 74 68 67 70 71 73 72 69 65 48 45 44 48 55 55 47 46 46 47

GFSFLT1_sfc_dewp_051.txt.gz
Dewpoint
52 54 54 56 58 60 63 64 66 67 71 74 75 73 74 74 75 66 64 70 65 64 62 63 76 74 73 74 74 73 76 72 71
51 52 54 56 58 59 62 64 67 68 71 74 74 70 74 75 74 72 66 70 73 68 72 64 70 72 73 73 73 75 77 70 73
47 51 54 55 58 59 61 62 64 67 69 72 73 72 73 73 74 75 73 74 75 73 72 74 70 72 71 72 74 74 78 73 75
43 46 52 54 57 59 60 61 63 64 67 70 71 72 73 72 72 72 74 74 74 75 74 75 75 74 73 73 73 75 77 77 74
38 44 49 54 55 59 61 61 62 64 65 65 69 71 73 72 72 72 71 73 74 76 76 75 75 75 75 74 73 75 76 74 72
39 42 45 52 54 57 60 61 63 62 64 63 65 70 70 71 71 72 71 74 74 75 76 76 73 75 76 75 74 75 76 76 74
34 42 47 49 54 56 59 63 66 66 63 63 63 65 67 70 71 72 71 73 75 75 76 76 76 76 76 75 74 74 73 74 75
38 37 43 47 51 58 64 65 68 68 65 67 65 67 67 69 73 73 73 73 75 75 76 76 77 77 76 76 72 69 74 74 75
39 41 43 44 50 54 59 65 67 69 68 67 67 69 68 70 73 74 73 74 75 76 76 77 77 77 76 75 69 65 65 71 73
39 40 43 47 45 51 54 57 66 67 70 69 69 71 70 72 74 74 75 75 76 76 77 77 78 77 77 76 76 64 63 65 70
55 54 51 55 54 53 53 53 56 64 66 72 71 71 73 73 74 75 76 76 76 77 76 77 77 77 77 77 76 65 62 64 73
59 60 60 61 60 60 61 56 56 64 65 71 71 72 73 74 74 75 76 76 76 77 76 77 77 77 78 78 77 64 62 65 72
60 61 61 63 63 63 63 64 60 57 63 67 71 72 73 75 75 76 76 77 77 78 77 77 74 76 77 74 78 65 61 65 70
60 62 64 66 67 66 67 66 64 64 63 67 70 72 73 76 76 77 77 78 78 78 77 75 77 76 77 77 76 76 60 59 74
58 59 61 64 69 67 67 68 69 69 68 69 73 74 74 76 77 74 74 78 78 78 78 78 78 77 76 73 77 68 61 58 61
55 56 60 62 68 68 64 68 70 71 70 74 74 75 75 76 77 77 76 77 78 75 77 72 73 72 71 69 70 74 61 58 58
53 55 56 59 66 71 71 71 69 70 76 75 76 76 76 76 76 76 76 74 74 72 71 71 69 69 68 67 66 65 69 70 65
53 54 56 57 61 65 67 70 72 71 73 75 74 75 75 75 73 74 75 75 71 71 69 66 69 65 64 62 64 63 62 66 72
54 54 56 56 58 60 61 63 64 65 68 76 73 73 72 71 70 72 72 70 68 52 56 49 49 49 60 70 55 55 52 55 55
54 54 55 56 57 58 60 60 62 65 66 70 75 73 73 70 68 72 72 72 70 69 61 48 47 49 50 51 52 49 49 49 50

GFSFLT1_sfc_dewp_054.txt.gz
Dewpoint
60 55 55 57 59 61 62 62 64 66 70 71 72 73 72 73 74 69 70 73 70 73 72 71 75 76 75 77 77 77 78 76 75
58 59 57 57 59 60 62 63 64 67 70 71 72 71 73 71 74 73 69 73 74 73 74 71 75 75 76 76 77 76 78 75 76
55 62 63 59 58 60 62 63 65 66 70 71 72 72 72 71 70 73 73 69 73 73 75 75 75 76 75 76 77 77 77 75 76
49 54 62 64 65 60 62 63 65 65 68 71 72 73 72 71 71 71 71 72 69 75 73 78 76 77 76 75 75 77 77 76 75
53 57 62 63 61 62 61 63 64 65 66 69 71 73 72 71 72 71 70 69 73 73 76 75 79 76 77 75 75 76 76 75 72
42 59 56 57 64 64 60 61 64 64 66 65 70 72 71 71 71 71 71 71 71 74 74 76 74 77 75 76 75 75 76 76 75
38 45 56 60 62 65 61 63 65 65 65 66 66 70 70 71 71 71 70 72 71 73 75 74 75 75 76 75 75 74 75 75 75
46 44 43 48 51 64 66 65 66 66 66 66 66 68 69 71 72 72 72 72 73 72 73 74 75 75 76 75 74 72 74 74 75
43 45 45 51 51 62 62 66 67 67 67 67 67 68 68 70 72 73 73 72 73 74 73 74 75 75 75 75 73 68 66 72 73
39 44 47 50 54 58 66 64 67 67 68 68 68 69 70 70 72 73 73 73 72 74 73 74 75 75 76 75 75 65 64 67 71
37 45 50 61 50 57 63 65 69 68 68 70 70 70 71 71 72 72 73 73 73 73 74 74 75 75 76 76 75 66 62 64 71
35 43 49 61 60 61 66 65 66 68 69 69 69 70 71 71 71 72 73 73 73 73 74 74 74 75 76 76 76 64 63 63 70
42 64 60 61 61 62 62 66 64 65 66 70 69 69 71 73 71 73 73 73 73 74 74 74 74 74 75 73 76 66 62 64 71
56 62 62 64 65 66 68 68 67 67 67 66 71 70 71 73 73 73 74 75 75 75 75 75 75 75 75 76 75 75 61 59 72
56 59 60 62 64 66 70 70 69 68 70 70 72 73 72 75 75 72 73 76 76 76 76 76 75 75 75 75 77 68 62 58 61
57 57 59 61 64 68 73 73 73 70 71 73 75 75 73 74 75 75 75 76 76 75 76 75 75 74 74 74 75 76 63 59 58
54 56 56 57 62 65 65 67 70 74 73 74 74 74 75 74 75 75 75 75 75 75 75 75 74 73 73 73 73 73 75 68 64
54 55 56 57 60 61 61 63 67 69 71 74 71 75 74 74 74 74 75 74 75 75 75 72 73 73 72 72 71 71 66 70 72
54 55 57 56 56 57 58 60 63 66 68 70 75 73 73 72 73 73 74 73 71 51 54 50 53 56 66 69 57 52 51 50 58
55 55 56 55 55 56 57 57 60 61 65 68 73 74 74 72 71 72 73 73 70 67 59 47 46 46 51 55 55 49 48 46 52

GFSFLT1_sfc_dewp_057.txt.gz
Dewpoint
61 60 59 57 58 58 58 61 63 65 66 68 69 68 67 70 70 66 69 70 69 70 70 70 73 73 73 72 73 73 73 72 72
57 59 63 63 59 58 59 61 62 64 66 66 69 69 67 68 72 66 68 68 69 67 69 70 72 73 72 74 73 73 74 72 73
60 62 64 65 65 63 61 60 62 64 67 66 69 69 69 66 68 71 68 67 69 68 67 69 72 74 73 74 73 72 74 71 73
59 58 63 65 65 67 64 61 61 63 67 67 68 68 70 67 66 70 70 68 66 70 68 73 73 73 73 74 74 74 73 72 73
58 61 63 64 63 65 64 61 60 62 65 68 69 69 68 69 68 68 69 69 67 65 70 70 73 73 73 73 72 73 73 73 72
55 59 63 57 61 63 63 61 61 61 63 68 69 70 69 69 69 66 67 66 69 66 71 69 72 73 72 73 72 72 73 73 73
48 60 61 58 59 60 59 61 64 61 62 65 68 70 70 69 68 69 66 66 65 71 68 73 72 74 72 73 72 73 73 73 73
37 42 60 60 59 58 66 64 66 65 63 63 67 69 70 70 69 68 69 67 67 63 72 68 72 72 74 73 73 72 72 74 73
24 28 39 43 49 50 65 63 59 61 63 64 64 68 69 70 70 69 69 69 70 67 66 72 70 71 72 74 73 69 68 71 73
27 25 32 46 50 60 63 61 59 59 60 64 64 65 69 69 69 70 69 69 69 71 67 68 72 72 72 72 73 67 66 68 70
32 40 42 59 58 67 67 68 66 66 66 66 65 65 67 69 70 70 70 70 69 70 70 69 69 71 73 73 73 67 64 66 69
42 45 46 59 52 62 67 67 66 66 66 65 65 66 66 68 69 70 70 70 70 69 70 71 70 71 72 73 73 65 64 63 66
42 46 48 57 54 61 61 68 66 64 65 64 64 65 67 68 69 70 70 70 70 71 69 69 71 70 72 71 73 65 63 63 69
42 44 45 58 61 62 64 66 69 68 67 64 67 66 67 70 68 69 70 71 70 70 70 70 70 71 71 73 73 73 61 60 71
44 46 49 59 60 61 64 69 69 69 69 69 70 70 69 69 69 69 70 70 71 70 70 70 70 71 72 72 73 67 63 59 61
48 53 57 58 58 59 63 66 66 68 69 70 70 72 70 71 72 69 70 71 71 71 71 71 71 71 72 72 72 73 63 59 59
53 55 55 57 58 60 61 61 62 66 68 69 71 71 73 70 72 71 69 72 72 72 72 72 71 72 72 72 72 73 74 69 64
54 55 56 56 57 57 57 57 60 62 63 66 68 72 73 71 71 71 71 72 73 72 73 71 72 72 72 71 72 72 68 70 71
55 55 55 55 55 55 56 56 56 57 59 62 65 70 71 72 70 72 72 72 67 50 52 52 56 61 69 72 61 61 57 54 57
55 55 55 55 54 54 55 54 54 55 56 60 63 68 71 72 69 71 72 72 71 68 58 48 46 46 55 56 60 51 50 48 52

GFSFLT1_sfc_dewp_060.txt.gz
Dewpoint
56 56 59 59 57 57 59 61 63 67 67 66 66 67 68 70 66 66 68 68 69 69 70 71 73 71 72 73 72 71 71 71 70
56 57 60 61 57 57 60 61 62 64 67 66 66 66 66 68 70 67 67 69 70 70 70 70 73 71 72 72 72 72 72 70 70
54 61 61 62 59 57 61 61 62 64 65 67 67 66 65 65 67 70 66 67 68 69 69 70 71 72 72 72 72 72 72 70 71
55 60 62 64 62 62 63 64 62 63 64 65 68 68 67 65 65 68 70 66 66 68 68 68 70 72 71 72 72 71 73 71 70
59 61 62 63 63 64 62 62 62 62 64 64 65 68 68 67 65 66 69 69 66 66 68 71 72 73 72 72 72 72 71 71 71
59 62 62 64 62 60 58 61 61 62 64 65 65 66 68 68 66 65 66 68 69 65 65 68 73 73 72 72 72 72 72 72 71
61 63 63 62 59 59 60 61 61 61 62 66 66 66 67 67 68 66 64 66 67 69 65 64 69 73 72 72 72 72 72 72 71
51 60 62 54 54 48 55 61 62 63 64 64 67 67 67 66 68 69 66 64 66 66 69 66 68 71 72 72 71 71 70 71 72
36 41 47 43 52 57 61 59 53 64 65 66 67 68 68 68 67 69 69 67 65 66 65 69 68 71 72 71 71 67 68 70 71
42 43 44 47 53 64 65 65 64 62 64 66 66 68 68 69 70 69 69 69 67 65 65 63 69 67 71 72 72 66 65 68 71
37 39 43 43 45 57 64 65 67 66 66 66 65 66 68 70 70 70 69 68 68 68 68 64 63 69 68 70 72 66 64 66 70
39 40 40 43 46 55 64 63 65 67 67 67 66 65 65 68 70 70 70 69 68 69 69 69 65 67 71 71 70 64 63 64 70
42 41 41 41 46 57 62 68 66 64 66 67 64 65 64 65 68 70 70 70 69 69 68 69 69 67 67 68 72 64 62 64 70
41 41 40 43 49 61 63 64 65 64 64 64 64 66 65 66 65 68 70 70 70 69 69 68 69 69 69 70 70 70 61 60 71
39 41 41 52 56 60 62 65 67 68 67 67 64 63 64 64 65 67 69 69 70 70 70 69 68 69 70 70 71 66 62 60 61
41 43 46 54 57 57 60 64 64 63 66 69 70 70 70 68 70 69 68 69 69 70 69 70 69 68 68 70 71 71 62 60 59
43 46 48 55 56 57 59 59 59 61 63 64 65 66 68 71 72 71 71 68 72 70 69 69 69 69 69 69 70 71 72 69 65
45 48 50 55 56 55 56 56 57 58 58 59 61 62 66 70 72 70 71 71 71 70 71 69 69 69 69 70 70 71 67 69 72
47 48 53 55 54 55 56 55 54 55 55 56 58 60 63 68 72 72 72 71 67 52 53 56 56 58 66 70 64 61 56 53 57
51 50 55 54 52 52 53 53 53 53 52 53 55 57 61 64 67 71 71 71 70 69 59 48 46 50 53 57 63 53 52 53 51

GFSFLT1_sfc_dewp_063.txt.gz
Dewpoint
58 59 61 59 57 60 60 60 62 66 66 65 67 66 66 66 65 66 66 68 68 68 69 71 71 71 71 71 70 71 70 70 70
59 60 61 60 58 59 60 60 61 65 66 65 66 66 66 67 66 65 66 68 69 69 69 70 72 71 71 72 71 71 70 70 70
59 60 60 59 59 57 60 61 61 64 66 65 66 66 66 67 68 67 66 67 69 70 70 70 71 71 71 71 71 71 71 70 70
57 55 58 60 59 59 59 61 61 63 65 65 65 65 65 65 66 69 68 66 66 68 69 70 70 72 71 71 71 71 71 70 70
55 59 59 64 65 65 64 64 64 64 64 65 65 65 65 65 64 66 69 68 66 66 67 68 69 70 71 71 71 71 71 71 71
62 62 62 61 62 63 63 63 62 63 64 64 65 66 65 65 64 64 65 68 69 66 66 67 70 71 72 71 71 71 71 71 71
58 62 56 58 60 62 62 61 62 62 63 63 64 65 66 66 65 64 64 65 67 68 65 66 67 72 72 72 71 71 71 71 71
45 50 47 50 57 59 62 63 61 61 62 63 65 64 66 66 67 66 64 64 65 67 68 66 65 68 72 72 72 71 71 72 71
38 40 43 48 47 51 55 63 65 62 61 65 65 65 65 67 67 67 66 65 64 65 66 67 66 66 67 71 71 67 67 70 71
38 38 37 41 46 52 52 61 65 65 65 66 67 66 67 67 68 67 68 67 65 64 64 65 66 67 68 68 70 65 65 67 70
38 40 39 38 37 46 50 57 63 66 66 65 65 68 67 67 67 67 68 69 67 65 64 65 64 64 66 69 69 65 63 65 70
38 39 39 39 39 42 49 58 66 66 66 67 66 66 68 68 68 69 68 68 68 68 66 65 65 63 63 66 67 63 62 64 69
39 39 39 40 40 45 51 59 64 65 65 66 66 66 64 65 68 69 70 69 68 68 68 67 67 66 64 63 66 61 62 63 70
40 40 40 40 40 46 54 57 62 64 65 65 66 66 65 65 64 66 70 71 71 70 69 69 69 69 67 65 68 68 59 59 70
40 40 40 40 40 43 52 57 60 62 63 66 69 69 65 64 64 67 68 69 70 71 70 69 68 68 69 69 67 62 61 59 61
41 40 40 41 42 44 51 59 61 62 61 63 65 64 65 67 69 65 67 68 68 69 70 69 68 68 68 69 69 69 60 58 58
42 41 42 43 45 46 50 56 60 59 60 61 61 61 63 64 65 68 71 71 70 68 69 69 69 68 68 68 69 70 70 67 63
44 46 45 45 47 48 52 56 57 57 58 57 57 58 61 62 64 68 71 71 70 69 69 68 68 68 69 69 68 69 66 67 71
45 46 46 48 47 48 52 56 56 56 56 55 55 56 58 60 62 64 68 71 70 53 56 55 55 56 65 69 62 60 55 54 54
45 46 46 47 48 50 54 53 53 53 53 53 53 53 56 57 59 61 65 69 71 69 60 49 50 49 52 53 62 51 52 51 52

GFSFLT1_sfc_dewp_066.txt.gz
Dewpoint
61 62 61 60 59 59 61 63 63 65 65 66 67 67 67 67 68 68 68 68 68 69 70 71 73 73 72 72 72 72 71 72 73
60 60 61 61 60 60 61 61 63 64 66 66 67 67 67 66 67 68 68 69 70 69 71 71 73 72 73 72 72 72 73 71 71
58 59 58 60 61 59 61 61 62 64 65 65 66 67 67 66 66 67 67 68 69 70 70 71 73 73 73 73 73 72 72 71 71
55 60 62 62 64 60 62 61 61 63 65 65 66 66 67 67 67 67 67 67 68 70 71 71 72 73 73 72 72 73 72 72 72
61 61 63 64 64 65 63 64 64 63 64 65 65 66 67 67 67 68 67 66 67 69 70 71 72 72 73 72 72 72 73 72 72
48 55 59 60 62 64 65 65 65 65 65 65 65 66 66 66 66 67 68 68 68 68 68 68 70 71 72 72 72 72 72 72 72
43 46 47 51 55 59 64 64 65 65 66 65 66 66 66 66 66 66 66 68 69 68 68 68 68 70 71 72 72 72 72 72 72
38 39 42 44 48 50 52 59 66 66 64 66 65 66 66 66 66 66 66 67 68 69 68 68 68 68 71 72 72 71 73 73 72
39 40 38 41 41 47 48 54 57 64 65 64 65 65 65 68 68 68 67 67 67 68 69 68 68 68 68 70 71 68 67 71 72
38 38 40 39 40 45 48 52 57 62 65 67 66 66 66 67 68 68 68 68 67 67 67 68 68 67 68 69 70 65 65 67 72
38 38 39 40 39 39 44 49 57 64 66 66 66 67 67 68 68 68 69 69 68 67 66 67 67 68 68 68 68 63 63 65 71
38 39 40 40 40 41 41 47 57 63 65 66 67 66 68 69 68 68 68 69 69 68 67 66 66 67 68 68 68 61 61 64 70
38 39 40 41 42 41 40 43 54 59 61 65 65 66 67 67 68 69 69 69 69 70 69 68 66 67 67 65 68 61 60 62 68
39 39 41 43 43 42 41 41 49 56 59 61 66 68 68 67 66 67 70 71 71 71 70 70 69 68 68 67 66 66 58 59 69
38 41 43 44 42 42 43 43 48 53 58 61 66 65 66 66 67 66 68 69 71 71 71 70 70 69 69 69 68 61 58 57 60
40 42 44 43 42 43 44 46 47 50 55 63 64 64 63 64 65 67 68 67 68 71 71 70 69 69 69 69 70 68 59 57 57
41 43 45 44 44 44 45 46 46 48 52 60 61 61 62 63 63 64 66 69 67 67 69 70 70 69 69 69 70 70 70 65 62
42 43 44 45 43 43 45 48 48 48 51 58 59 58 60 62 62 63 64 67 70 69 68 67 70 70 70 69 69 69 67 67 68
42 43 44 45 45 45 45 47 49 50 52 57 56 56 57 59 61 62 63 64 66 59 57 52 52 57 66 70 63 57 54 53 52
43 43 43 44 44 45 46 46 50 51 54 55 54 53 54 56 56 59 61 62 63 64 66 52 50 48 49 53 62 52 52 50 49

GFSFLT1_sfc_dewp_072.txt.gz
Dewpoint
52 60 59 60 61 62 63 63 64 66 68 71 72 72 73 74 74 70 69 70 66 67 66 68 72 73 72 73 73 72 73 70 68
55 59 60 61 61 62 63 64 65 67 68 71 71 70 72 73 73 72 69 71 71 67 70 67 72 71 72 72 73 73 75 70 72
58 59 61 61 61 62 63 63 64 66 67 70 71 70 70 71 72 73 72 72 72 71 69 72 71 73 73 72 73 75 75 70 73
55 59 62 63 65 63 63 63 64 65 66 68 69 70 70 70 70 71 72 71 72 72 71 72 73 74 74 73 72 73 75 73 71
47 50 52 55 57 59 63 64 64 64 65 65 67 68 70 70 71 70 69 71 71 72 72 72 73 75 74 74 73 74 74 72 70
42 43 44 45 45 51 56 61 64 65 64 63 64 68 68 70 69 70 70 70 71 71 72 72 71 73 75 74 74 74 74 73 72
39 41 42 41 45 50 53 54 55 63 66 66 65 65 67 68 69 69 69 70 71 71 72 72 72 72 73 73 71 73 73 74 73
39 40 40 41 41 44 50 51 53 56 62 65 68 68 67 68 70 70 70 71 72 72 72 72 72 71 72 72 71 68 72 73 74
41 40 41 41 42 43 43 46 50 52 54 62 65 69 68 69 70 71 71 72 72 72 72 72 72 71 70 70 67 64 66 71 72
42 41 42 42 41 42 45 45 46 47 51 56 60 63 69 69 70 71 71 72 72 72 72 72 73 72 71 72 72 63 63 67 69
40 40 41 42 40 42 45 46 46 48 48 51 54 60 65 69 69 69 71 73 72 72 72 72 72 73 74 74 72 63 62 64 71
39 39 40 40 41 42 47 48 48 50 49 49 50 55 60 65 66 70 70 70 72 73 72 72 71 72 73 74 74 62 61 65 69
38 39 40 41 42 43 44 48 47 48 48 50 50 51 53 58 65 66 68 71 74 76 75 73 71 71 72 69 73 64 59 64 66
40 41 41 42 43 43 45 47 48 49 50 50 51 52 53 57 61 64 65 69 73 74 75 75 74 73 72 72 71 72 59 58 69
40 41 41 41 42 43 45 47 48 49 50 52 53 54 53 54 56 61 59 66 66 71 75 75 74 75 72 71 73 65 61 57 59
39 40 41 40 40 43 44 46 47 48 50 52 52 52 54 54 55 56 61 63 65 65 70 70 75 75 70 69 70 71 61 57 57
38 39 41 41 41 42 43 45 46 48 49 50 50 51 52 53 52 53 57 56 56 60 63 63 65 68 73 74 70 70 70 69 65
39 41 41 41 41 41 43 44 45 45 46 47 47 48 49 51 50 52 55 56 55 58 62 62 63 68 69 70 69 68 65 65 70
41 41 42 42 43 43 43 43 44 46 46 45 46 46 46 46 48 49 50 51 53 52 54 54 52 52 57 67 61 55 55 53 54
42 41 42 43 43 43 43 43 43 44 46 45 46 45 47 47 50 52 52 52 52 52 52 50 49 50 50 50 56 54 49 48 50

GFSFLT1_sfc_dewp_075.txt.gz
Dewpoint
58 59 59 59 61 63 63 63 60 63 68 72 72 72 74 74 74 69 68 71 69 67 71 71 75 73 72 72 73 72 73 70 68
49 59 60 60 60 62 63 64 63 63 69 71 72 71 73 74 74 73 70 74 71 68 73 73 72 72 72 72 72 73 74 69 72
60 62 64 64 64 62 63 63 62 62 65 70 71 71 71 71 73 74 73 71 73 72 73 71 73 72 72 71 72 72 74 73 74
52 55 58 60 61 64 66 65 64 64 64 67 69 70 71 71 71 72 73 71 71 73 71 72 72 75 73 72 72 72 75 76 72
48 49 49 55 58 60 60 63 65 68 64 64 66 69 72 70 71 71 71 72 72 73 74 72 72 73 73 73 72 73 74 72 69
45 45 46 48 52 52 54 58 64 65 67 66 63 67 67 69 69 70 71 71 72 74 74 74 70 72 74 72 72 74 75 74 72
43 44 45 46 47 50 51 54 57 61 62 66 67 70 66 68 70 70 71 72 73 72 74 74 73 73 74 73 71 72 73 74 74
41 42 42 43 44 48 51 54 54 56 58 63 66 68 70 72 70 72 72 72 74 73 74 74 74 74 74 73 71 67 73 73 73
41 41 42 42 43 45 47 48 53 55 54 57 62 63 67 71 71 73 73 73 73 74 74 75 75 73 73 73 67 64 65 70 73
42 42 42 42 42 44 47 46 49 51 56 55 57 60 61 65 69 71 72 74 74 74 74 74 76 75 74 74 74 64 63 66 69
40 41 42 43 40 44 47 47 48 50 49 53 54 56 55 59 62 67 70 73 73 74 74 74 74 74 76 76 74 64 62 64 73
39 40 40 41 41 42 47 48 52 54 51 52 53 52 54 57 58 63 66 67 72 75 74 73 73 73 75 76 76 63 61 64 69
39 40 42 42 43 43 43 47 47 49 50 53 53 54 54 55 56 60 65 66 65 71 75 72 71 72 73 71 75 67 60 63 68
40 41 42 43 44 44 46 47 47 49 50 50 52 53 54 55 56 56 60 64 64 67 70 74 73 72 74 76 74 74 60 58 71
38 40 40 41 42 43 45 46 47 49 50 52 53 54 54 55 56 55 52 61 64 64 66 69 73 75 74 76 76 67 63 58 59
38 38 41 41 42 43 45 46 47 48 50 52 52 53 53 53 54 55 57 56 61 58 65 63 65 71 72 73 76 73 62 58 58
38 39 41 41 43 43 45 46 47 47 48 49 50 50 51 51 51 52 53 52 53 53 50 55 57 65 72 73 75 76 72 72 67
39 40 41 42 43 43 45 46 46 46 47 47 46 47 46 47 47 49 51 54 51 50 56 53 56 58 62 65 68 69 63 61 69
41 41 42 42 44 44 45 45 45 46 46 46 45 45 43 43 44 45 45 47 49 48 48 47 46 47 53 58 53 53 54 53 54
43 42 42 42 42 43 44 44 44 44 44 44 45 43 44 43 44 44 45 46 48 49 49 46 45 45 48 48 51 48 47 47 51

GFSFLT1_sfc_dewp_078.txt.gz
Dewpoint
59 61 61 65 61 64 63 63 64 68 72 73 74 74 75 75 76 75 72 72 73 72 70 73 76 76 76 77 75 76 76 76 75
61 64 64 65 63 64 66 64 63 68 72 73 74 73 75 75 75 75 74 75 76 72 72 74 74 75 75 75 74 77 76 74 75
55 59 62 64 65 64 67 65 63 67 72 73 73 73 74 74 75 76 76 77 76 77 72 71 71 72 73 75 74 75 76 76 72
50 54 57 61 61 63 66 67 69 69 70 72 73 73 73 74 74 74 75 75 76 76 76 72 70 66 67 73 75 76 76 75 73
47 49 53 56 58 58 60 63 65 65 69 69 71 72 74 73 74 74 74 75 75 77 77 76 73 69 69 73 75 75 76 74 73
47 46 48 52 56 56 57 57 61 64 65 66 68 70 71 72 73 74 74 75 75 76 76 76 74 75 76 76 75 76 75 75 75
46 46 48 51 53 54 56 56 57 59 64 64 66 68 70 71 72 72 72 75 76 75 77 76 75 75 76 75 75 75 75 75 75
44 43 44 46 49 52 53 54 55 56 58 61 64 65 68 69 69 73 76 76 76 76 75 75 76 75 75 75 74 70 74 75 75
43 44 43 44 46 48 50 51 55 56 57 57 60 61 64 65 70 72 73 75 75 77 75 76 75 75 75 74 71 66 66 72 74
43 43 43 43 44 46 49 48 51 54 58 59 59 59 58 61 65 67 70 73 75 76 76 76 75 75 75 74 74 66 63 66 71
42 42 43 43 41 45 48 49 49 53 52 57 57 58 57 58 59 62 67 70 69 71 76 76 76 75 75 75 74 66 64 64 71
41 41 42 42 42 43 49 50 52 55 53 55 55 56 58 58 57 57 61 67 68 69 71 74 75 75 75 75 75 65 62 64 70
40 41 43 43 43 43 45 49 47 50 53 55 54 55 57 59 60 59 59 61 65 67 69 70 73 74 74 70 74 67 62 63 71
41 42 43 43 43 44 46 47 47 50 51 51 54 55 55 57 58 59 61 62 61 66 67 68 70 70 74 74 73 74 61 60 73
40 40 41 41 43 44 46 47 47 49 52 54 55 55 55 57 58 55 54 59 61 61 63 64 66 69 70 72 74 67 65 59 60
38 39 41 40 42 44 46 47 48 48 52 53 53 53 54 54 55 55 56 57 59 58 59 61 61 62 62 66 70 72 63 60 59
39 40 41 41 42 43 45 48 47 48 50 52 52 52 52 52 51 51 52 52 52 52 54 52 53 56 60 65 72 73 75 75 72
41 41 41 43 43 43 44 47 48 46 49 49 46 48 48 48 47 48 50 51 51 52 54 53 53 54 56 56 59 69 64 62 67
41 41 42 44 43 43 44 44 45 48 48 48 44 43 43 43 43 44 45 46 47 48 47 46 45 44 48 52 50 49 48 49 49
44 43 43 43 43 43 44 44 44 45 46 45 44 42 42 41 42 42 44 45 45 46 48 47 45 43 44 44 45 44 44 44 46

GFSFLT1_sfc_dewp_081.txt.gz
Dewpoint
59 61 64 64 61 62 63 64 65 66 68 71 71 70 71 71 71 70 70 69 70 71 70 71 72 73 72 72 71 71 71 70 71
61 64 65 66 66 65 64 64 63 66 68 70 71 71 72 72 71 71 70 68 69 71 69 72 72 72 72 72 72 71 72 70 70
56 59 64 64 64 64 67 68 66 67 70 70 71 72 72 73 73 72 72 72 72 70 71 71 69 68 69 72 72 73 72 71 70
52 54 57 60 62 63 64 66 68 69 68 70 71 72 72 72 73 73 72 72 72 71 71 69 69 68 66 69 72 72 71 71 71
49 53 55 56 58 59 61 64 65 66 67 67 67 68 71 72 73 73 73 72 72 72 71 71 69 69 66 67 70 72 72 71 70
46 48 52 54 55 56 58 60 62 65 65 66 67 67 69 70 72 73 72 73 72 73 72 70 67 66 67 70 71 72 72 72 72
46 47 49 52 54 56 57 58 59 60 63 65 66 66 66 68 67 69 71 73 74 74 74 73 72 72 72 72 72 71 72 72 71
43 45 47 48 51 53 57 57 56 57 59 60 63 64 64 66 69 67 67 69 72 73 74 73 73 72 73 73 72 72 72 72 71
42 43 45 47 48 50 52 55 56 56 56 60 60 60 61 63 65 68 69 70 71 71 72 73 74 72 73 72 72 68 67 71 72
43 43 44 45 46 48 49 49 54 56 58 58 58 58 59 60 62 63 66 69 68 67 71 72 72 73 73 72 72 67 65 66 71
43 43 44 43 45 48 49 49 51 53 55 57 58 58 58 59 60 59 61 66 66 66 68 70 72 72 72 73 74 67 65 65 65
43 43 43 43 43 49 49 49 52 53 53 55 54 55 56 58 60 58 58 60 61 65 67 68 70 72 72 72 72 66 63 64 68
42 44 44 44 45 47 47 47 47 50 51 53 52 53 54 56 56 56 56 59 60 60 65 66 67 69 70 70 72 67 62 63 70
43 43 42 44 45 46 47 48 49 49 51 49 51 52 52 53 54 55 54 54 56 60 60 62 65 65 67 70 72 72 63 60 69
41 41 41 43 45 45 47 48 47 48 49 50 50 51 51 52 52 51 51 53 54 55 58 58 58 62 64 66 68 65 65 61 59
40 41 42 43 42 44 47 48 47 46 48 49 49 49 49 49 50 50 50 49 49 50 50 54 53 52 52 58 62 67 62 59 59
41 42 42 42 42 44 45 47 46 46 48 48 46 45 45 45 46 46 46 46 47 49 50 49 51 52 52 56 55 65 67 68 67
41 42 43 42 43 43 44 45 46 46 46 45 43 43 42 42 42 42 42 43 44 45 45 45 45 45 45 46 48 52 61 60 63
41 42 44 43 42 42 44 44 44 45 44 44 43 41 41 41 41 40 41 41 42 45 44 43 42 42 43 46 46 46 45 44 45
46 42 44 42 42 44 43 43 43 44 44 43 42 40 40 40 40 40 40 41 42 42 43 44 43 42 43 43 43 43 42 42 42

GFSFLT1_sfc_dewp_084.txt.gz
Dewpoint
58 59 64 62 62 62 64 65 66 67 70 68 69 69 70 70 69 68 66 68 70 70 70 70 71 72 72 71 71 70 70 70 70
60 64 65 66 66 67 66 66 66 66 69 69 69 70 70 70 70 69 69 69 68 69 70 70 71 72 72 72 71 70 71 69 69
56 58 61 64 65 66 68 68 69 68 67 70 70 70 70 71 70 70 70 69 67 69 69 72 71 71 72 72 71 71 71 70 69
54 57 59 60 63 66 67 68 68 68 68 69 68 68 68 71 72 71 71 71 71 71 70 71 70 69 68 69 70 72 72 70 70
52 55 56 58 59 62 65 65 67 67 67 67 67 68 69 69 70 71 71 71 71 71 70 69 69 67 66 66 68 71 71 70 70
50 53 54 55 57 58 61 63 65 66 67 67 67 67 67 68 68 70 70 70 71 72 70 70 69 67 66 66 67 70 71 71 70
48 50 51 54 55 56 58 59 61 64 65 66 67 66 67 67 67 66 67 69 70 71 70 70 68 66 66 66 67 70 71 71 70
46 46 47 50 53 55 56 57 59 60 61 62 65 65 66 66 67 67 68 68 67 67 70 72 70 69 69 69 70 70 70 72 70
45 45 46 48 50 52 55 55 56 60 59 60 60 61 61 63 65 65 66 68 68 68 68 71 72 72 71 72 73 68 68 70 71
43 44 45 47 49 50 51 53 56 54 57 59 58 59 59 60 60 61 61 65 67 66 66 68 70 71 71 71 71 67 65 66 70
43 44 44 45 47 48 50 53 53 55 56 57 58 58 59 59 60 60 61 61 62 63 66 67 68 69 70 71 72 65 64 65 67
42 42 43 46 48 47 46 47 50 53 53 53 53 53 55 56 57 57 57 60 61 62 63 63 64 66 68 69 70 64 61 64 68
43 43 45 45 46 46 47 48 50 48 49 50 50 51 52 53 53 54 54 55 57 60 61 62 63 64 65 64 67 64 61 63 68
41 43 44 45 46 46 46 47 48 47 48 48 49 50 50 50 51 50 50 51 52 55 57 59 61 62 64 65 65 66 61 60 68
41 42 44 45 45 46 46 46 46 46 47 48 48 48 48 47 48 47 48 48 48 48 49 50 53 55 58 62 64 61 62 59 57
40 42 42 42 44 45 47 46 45 46 46 46 45 44 44 44 45 43 44 44 45 45 45 45 46 47 46 47 54 56 61 57 58
41 41 41 42 43 44 43 45 45 45 45 44 43 42 42 42 41 42 42 42 43 43 44 44 43 43 43 43 45 48 57 55 58
41 41 41 42 42 43 43 44 43 43 43 43 41 41 41 41 41 40 40 41 42 42 43 43 43 43 44 44 45 46 46 45 48
42 42 43 41 41 43 42 42 43 43 43 42 41 40 40 40 40 40 40 41 40 43 43 43 42 41 42 42 44 44 42 40 41
44 43 41 41 42 42 41 40 41 41 42 41 41 39 39 39 40 39 39 40 40 39 41 42 41 40 41 41 41 41 40 40 41

GFSFLT1_sfc_dewp_087.txt.gz
Dewpoint
61 63 62 62 62 63 65 65 66 67 67 66 67 68 69 69 68 66 66 67 69 69 70 70 71 71 71 70 70 69 69 70 70
59 62 65 64 64 65 65 66 65 67 68 66 68 67 69 69 68 68 66 66 69 69 70 69 70 71 71 71 70 69 70 69 68
58 60 61 63 65 67 67 67 68 67 69 68 69 68 68 69 69 69 68 69 68 68 68 69 70 71 71 71 71 70 70 70 69
57 58 60 61 63 67 68 68 69 69 68 70 68 69 69 70 70 70 69 69 68 67 68 69 71 70 70 71 70 71 70 70 70
55 57 58 59 61 63 66 67 68 68 68 67 67 68 68 69 70 70 70 70 70 70 70 70 69 69 68 68 68 70 70 70 70
53 55 55 58 60 61 61 64 67 67 67 67 67 67 67 67 66 68 69 70 70 71 70 69 69 68 67 66 65 68 70 71 70
51 52 54 56 57 59 60 61 62 65 67 68 68 68 67 66 67 66 67 67 67 69 70 70 69 68 68 66 65 66 69 70 70
47 48 50 53 54 56 57 59 60 62 63 65 66 67 66 66 67 67 68 68 67 67 68 69 71 69 68 66 66 67 68 70 71
45 46 47 49 52 53 55 56 59 60 60 61 61 62 63 65 65 64 65 68 67 66 67 68 68 70 70 70 71 66 66 69 70
45 46 46 48 49 51 53 54 54 55 58 58 59 59 60 61 61 61 61 62 62 65 66 65 66 67 69 70 71 66 64 67 70
45 45 47 47 48 50 52 54 55 56 56 56 57 56 57 59 60 60 61 61 61 61 62 62 63 63 65 67 69 64 62 64 67
44 44 47 46 46 48 50 51 51 50 50 50 50 51 52 54 55 54 54 55 57 59 60 61 62 63 64 64 64 62 61 62 67
45 45 45 45 46 47 48 48 47 47 48 48 48 49 49 50 50 52 51 51 54 56 57 59 61 62 63 62 64 62 59 61 67
44 44 45 46 46 46 47 46 47 46 46 46 47 47 46 46 47 47 47 50 49 51 52 54 56 58 60 61 61 63 57 56 64
43 44 45 45 45 45 45 46 46 45 45 45 44 44 44 44 43 43 43 44 45 47 46 46 47 46 52 55 49 51 54 51 52
43 44 44 45 46 45 45 45 45 43 43 43 42 42 42 42 42 41 41 42 42 43 44 44 43 43 43 45 53 48 52 49 49
41 42 43 44 43 43 44 44 44 43 43 42 41 41 41 41 40 41 40 41 42 42 42 42 42 43 42 42 43 44 45 44 44
41 41 42 43 42 43 43 43 42 42 42 41 40 40 40 40 40 40 40 40 41 41 41 42 41 41 41 41 41 42 43 42 42
41 41 42 42 42 43 42 43 42 42 42 40 39 39 39 39 39 39 40 40 40 42 42 42 41 41 41 41 42 42 41 40 40
42 42 41 41 42 42 42 41 40 42 41 41 39 38 38 39 39 39 39 39 39 39 41 42 41 40 40 41 41 40 39 39 40

GFSFLT1_sfc_dewp_090.txt.gz
Dewpoint
61 62 61 61 63 65 65 65 66 67 67 66 68 69 69 69 69 69 69 69 70 71 71 71 72 72 72 72 71 70 71 71 71
62 63 63 63 64 64 66 66 65 67 67 67 67 69 70 70 69 68 67 68 70 71 71 71 72 72 72 72 72 71 71 71 71
60 61 63 65 65 65 66 67 68 68 68 68 68 68 68 70 69 69 69 69 69 70 70 71 71 71 72 72 72 72 72 72 71
59 60 61 62 64 67 67 67 68 69 70 70 69 69 69 70 70 70 70 70 70 70 70 69 70 71 72 72 71 72 71 72 71
58 59 59 61 62 64 67 67 69 68 69 68 69 68 69 70 71 71 71 70 71 71 71 71 70 71 71 71 71 72 72 72 72
56 56 57 59 61 62 64 66 68 68 68 68 68 68 67 67 67 68 69 70 71 71 71 71 70 70 70 70 69 70 71 72 71
53 55 56 57 59 61 62 63 65 67 67 67 68 67 67 67 67 68 68 67 68 68 70 71 71 70 70 70 69 68 69 71 71
50 52 53 55 57 59 59 61 62 64 64 66 68 67 68 67 67 67 68 68 68 68 68 69 71 71 70 70 68 66 68 70 71
47 49 51 52 54 56 58 59 61 62 62 62 64 64 65 66 65 64 65 66 66 67 67 67 69 69 70 71 71 67 65 68 71
47 48 49 51 51 53 54 55 57 58 59 60 60 61 61 62 62 61 62 62 62 64 63 64 64 65 66 67 69 63 63 65 69
47 48 49 50 50 52 55 55 55 55 54 54 55 54 55 57 58 58 60 60 59 61 62 62 63 63 64 65 66 62 61 62 68
46 48 47 48 50 52 51 50 50 50 51 51 49 49 50 52 54 53 53 55 56 57 58 60 61 62 63 64 64 54 54 60 67
47 46 47 48 48 48 47 47 48 48 48 48 46 47 48 48 50 51 52 52 54 56 56 58 61 61 61 58 60 52 51 56 61
46 46 46 47 47 47 47 48 46 46 45 45 46 46 46 46 46 46 47 50 50 51 52 54 54 54 56 56 53 54 50 50 51
45 46 46 46 45 45 46 47 45 44 44 44 45 45 44 44 44 43 43 47 46 47 48 48 48 49 50 51 51 53 49 48 48
45 45 45 45 45 45 46 46 44 43 44 44 44 43 43 43 43 42 43 43 44 43 45 44 44 44 43 43 44 45 48 47 47
46 45 45 45 44 44 44 44 44 44 44 43 43 42 42 42 42 41 42 41 41 41 42 41 41 41 42 42 43 44 44 43 44
44 44 45 44 44 44 44 44 43 43 43 42 41 41 41 41 40 41 41 41 41 41 42 42 41 41 42 41 41 41 43 41 41
43 44 44 43 44 44 43 43 43 43 42 42 41 41 40 40 40 40 40 40 40 42 42 42 41 40 41 41 42 41 40 39 40
43 44 44 43 44 44 43 43 43 43 43 42 41 40 40 40 39 40 40 39 39 38 40 41 40 39 40 40 40 39 38 38 39

GFSFLT1_sfc_dewp_093.txt.gz
Dewpoint
61 60 59 61 64 66 66 66 66 67 68 70 70 70 71 72 73 70 70 72 71 70 73 76 75 74 74 74 74 73 73 71 71
60 61 60 61 64 65 66 66 67 68 69 70 70 69 70 72 72 72 71 73 73 72 73 71 73 74 73 74 74 73 73 70 72
62 63 62 64 64 65 66 67 68 69 69 69 71 70 70 72 73 73 72 72 71 72 72 73 74 73 73 74 74 74 74 72 73
60 62 63 64 66 66 67 68 68 69 70 70 71 70 71 71 72 72 73 72 72 72 73 72 73 74 73 74 74 74 75 75 73
60 61 62 63 65 67 67 67 68 69 70 71 71 71 70 70 72 72 73 73 73 73 73 73 73 73 73 73 72 74 74 73 71
58 59 60 62 64 65 67 67 68 68 69 70 69 69 68 68 69 72 73 73 73 73 73 74 74 74 73 73 73 73 74 74 73
57 57 59 60 61 63 65 68 69 69 69 69 69 69 68 68 69 70 71 71 71 72 73 74 74 74 73 73 72 71 71 71 72
54 56 57 59 59 60 62 63 65 67 68 68 68 67 67 68 68 70 69 70 70 70 71 71 73 74 73 73 72 71 71 70 70
53 55 56 56 57 59 60 61 63 63 64 65 68 68 68 68 68 66 66 68 69 69 69 69 70 71 72 72 69 64 65 69 71
52 53 54 54 55 56 57 59 60 60 62 62 62 63 63 64 64 64 64 64 65 65 65 65 66 66 68 68 67 60 61 64 72
52 52 53 54 54 56 55 56 56 56 56 57 57 56 56 57 59 59 61 61 61 61 63 63 63 64 65 63 54 54 59 62 69
51 52 52 53 54 54 52 52 53 52 51 51 52 52 52 54 54 54 54 56 57 58 59 61 62 63 66 59 53 51 54 64 68
49 50 51 52 52 51 50 50 49 48 49 48 47 48 49 50 50 51 52 53 55 57 58 60 59 58 58 56 52 50 50 54 54
50 51 51 51 51 50 48 48 48 47 47 46 46 47 48 49 49 48 51 52 53 53 53 54 55 54 55 54 53 49 48 49 49
50 51 51 51 51 50 50 50 48 47 46 46 47 47 47 47 48 45 46 50 50 50 50 51 52 52 48 47 49 48 48 48 48
50 49 49 48 48 49 48 48 48 47 48 48 47 47 46 47 46 46 47 47 47 45 47 44 44 43 43 43 45 45 47 47 47
48 48 48 47 47 47 47 48 47 47 47 47 46 46 45 45 45 45 44 41 42 41 41 41 42 42 42 41 42 42 42 42 42
48 48 48 48 48 47 47 47 47 45 45 45 43 44 43 43 42 43 42 42 41 41 43 42 41 41 41 40 40 40 40 39 39
49 48 48 48 48 48 47 47 46 46 45 44 42 41 40 40 40 40 39 39 39 42 42 41 40 40 40 41 41 40 39 38 39
48 48 49 48 48 48 47 47 46 46 45 44 44 41 42 39 39 38 37 37 36 35 38 41 39 38 39 39 39 38 37 37 38

GFSFLT1_sfc_dewp_096.txt.gz
Dewpoint
59 59 56 57 63 64 66 65 66 68 70 71 72 71 73 73 73 68 71 70 69 75 70 68 72 71 71 72 73 73 74 70 68
57 60 59 59 61 64 66 68 68 68 69 69 71 70 72 73 74 73 69 72 72 76 76 70 71 71 71 71 72 73 74 68 71
57 60 62 61 62 64 66 67 69 68 68 71 71 70 70 71 70 70 70 71 73 73 72 74 73 71 71 71 71 73 75 70 72
61 61 62 63 64 66 66 68 68 69 70 69 71 71 71 72 71 69 70 70 70 71 72 74 75 74 71 72 71 71 73 73 71
62 64 64 65 66 67 68 68 68 68 70 70 71 71 72 71 71 71 69 70 70 72 72 75 74 73 74 73 71 72 72 71 70
61 62 63 64 66 66 67 67 68 68 70 70 71 71 71 71 71 71 71 71 70 71 72 72 70 71 72 73 72 72 73 73 72
59 60 61 62 64 66 67 68 68 69 70 70 71 70 70 69 70 71 71 71 72 71 73 73 71 71 71 71 73 72 72 72 72
58 60 61 61 61 63 64 67 69 70 70 70 71 70 69 69 70 71 71 72 72 72 72 72 73 73 73 73 72 69 73 72 71
57 58 59 60 60 61 62 63 65 69 70 70 71 70 69 69 70 70 70 70 70 70 70 71 72 72 73 73 70 62 64 70 71
57 58 59 59 59 59 61 61 62 62 63 65 66 66 67 67 67 68 67 66 66 68 68 69 69 70 71 67 64 56 60 64 71
56 57 56 58 57 58 58 57 57 59 59 60 61 61 60 62 63 64 65 64 65 66 66 68 68 67 68 62 53 53 56 61 70
56 57 57 57 57 56 55 56 56 55 55 56 56 57 57 56 56 57 60 61 63 65 66 66 66 67 64 60 54 50 52 61 68
54 55 56 57 56 53 52 51 52 50 51 50 50 52 52 53 55 55 55 57 57 60 61 63 62 63 60 55 55 49 49 54 58
53 54 55 55 54 53 52 50 49 48 47 48 47 50 50 50 51 53 53 55 55 57 59 60 60 59 59 57 54 49 48 49 47
52 53 54 53 52 50 50 51 51 49 48 48 50 51 50 50 50 46 49 54 54 55 56 56 58 57 53 52 53 47 47 47 47
52 53 53 53 52 53 52 51 50 49 50 50 50 49 49 49 48 51 52 52 51 48 52 48 48 46 46 48 48 47 47 47 47
52 53 52 51 51 50 51 51 50 51 51 50 50 49 49 48 48 49 50 45 45 45 44 44 44 44 43 43 45 43 40 39 41
51 52 51 51 51 50 50 51 50 48 49 48 47 46 46 46 43 46 46 45 43 43 44 42 43 43 44 42 43 38 38 38 38
52 52 52 52 51 51 51 50 49 48 48 47 45 43 41 40 40 41 41 41 39 42 42 41 40 40 39 41 38 39 39 38 38
52 52 52 52 52 51 51 50 48 49 48 46 45 42 43 37 38 37 39 39 38 36 36 40 39 38 38 38 38 38 37 37 38

GFSFLT1_sfc_dewp_099.txt.gz
Dewpoint
58 56 59 56 59 62 63 65 64 67 70 72 71 71 72 72 71 68 67 69 73 67 71 67 75 72 72 72 72 72 72 69 68
57 57 58 57 58 62 67 65 66 68 71 73 71 70 71 73 73 72 72 71 72 70 73 74 71 71 71 71 71 72 73 69 70
58 59 59 58 63 64 66 67 71 69 69 72 72 70 70 71 71 71 70 71 71 72 72 75 73 70 70 71 71 72 73 72 72
56 58 60 63 64 64 66 68 69 71 72 71 73 71 72 73 70 71 71 70 70 71 71 73 72 72 71 71 71 72 74 75 73
63 64 63 63 63 67 68 69 68 68 69 70 70 72 72 72 70 70 72 70 70 71 72 72 72 73 73 73 72 73 73 72 70
63 64 65 66 66 67 69 69 67 68 69 69 70 71 73 72 71 71 72 73 70 70 71 72 71 72 73 72 73 73 73 74 73
61 62 63 65 66 67 68 69 69 69 69 70 71 72 70 70 70 71 72 72 72 72 73 72 71 71 72 71 71 73 72 72 72
60 61 62 63 64 66 68 69 69 69 69 70 71 70 70 70 70 71 71 71 72 73 74 72 71 71 72 71 70 71 71 72 71
60 60 61 63 62 63 64 66 70 70 71 69 70 70 70 70 71 72 72 71 72 72 73 73 72 72 73 72 66 61 62 68 74
59 59 60 61 62 62 62 62 65 67 69 71 70 70 70 70 70 70 70 70 71 70 71 73 71 71 71 67 62 55 57 63 68
58 58 59 61 60 60 59 59 60 62 62 65 67 66 66 66 66 67 67 68 67 66 68 70 70 70 68 63 53 52 54 57 67
58 58 59 60 59 58 57 57 56 57 58 58 58 61 61 62 63 64 64 64 67 67 69 68 68 69 66 62 55 50 52 59 68
57 58 58 58 58 55 55 54 55 54 54 55 54 54 54 59 58 58 60 62 63 64 66 66 66 64 63 57 57 49 49 53 56
56 57 58 57 56 53 52 51 51 52 50 50 50 50 53 54 55 55 56 58 58 59 63 64 65 63 62 57 54 49 48 48 53
56 56 56 56 56 54 52 51 50 49 50 50 51 52 51 54 53 49 52 56 57 59 60 60 61 61 59 56 56 48 47 47 46
55 55 55 53 53 53 52 53 53 50 50 52 51 51 52 50 53 54 53 57 55 50 55 55 53 52 51 51 50 50 47 47 47
54 54 54 53 54 53 53 53 53 52 53 53 53 54 51 52 53 54 55 52 48 45 44 45 48 45 45 45 46 45 41 39 41
54 54 54 54 53 52 53 53 53 52 52 51 50 50 49 49 47 48 48 48 45 44 45 42 42 45 44 43 43 39 38 37 37
54 54 53 53 53 53 53 53 52 51 51 50 48 46 44 42 40 43 42 43 41 41 41 41 39 39 39 40 38 38 39 38 38
53 54 54 54 54 53 54 53 52 51 50 49 49 46 45 41 38 38 40 41 41 39 36 40 39 38 38 38 37 38 37 37 38

GFSFLT1_sfc_dewp_102.txt.gz
Dewpoint
62 62 62 60 62 64 63 68 68 70 72 74 73 73 74 75 76 72 73 75 74 71 71 71 73 75 75 75 75 75 76 76 75
60 60 62 64 63 63 65 66 70 70 72 73 73 72 75 75 75 75 75 75 77 74 72 71 70 67 74 75 73 74 74 75 75
55 58 62 61 64 64 63 64 70 71 73 72 73 71 73 73 74 75 75 76 75 75 70 68 69 68 72 74 74 75 76 75 75
57 60 62 65 64 68 63 63 70 71 71 72 73 72 72 75 74 73 74 75 75 76 72 69 69 73 74 73 75 75 76 76 75
63 59 63 64 66 68 67 68 70 70 71 71 72 72 73 72 72 73 74 72 71 73 75 75 76 77 75 75 74 74 75 75 73
65 66 64 66 66 69 70 70 69 70 70 70 70 72 72 72 74 73 74 74 72 72 73 76 75 76 75 74 75 74 74 75 75
64 65 67 67 68 69 70 71 70 69 69 69 70 70 71 71 71 72 71 72 72 73 74 73 73 75 74 74 75 74 74 74 74
62 63 64 66 67 68 70 70 70 70 70 70 70 70 70 70 71 70 71 71 71 72 71 72 72 73 74 70 68 66 67 70 72
61 61 62 64 64 66 66 68 70 70 70 69 70 71 70 71 72 71 71 71 71 70 70 71 71 71 72 69 65 59 60 64 72
61 61 62 63 63 63 63 64 67 68 71 71 71 71 71 71 71 71 71 71 71 71 70 70 70 71 68 60 56 54 56 60 66
59 60 61 62 61 61 60 60 62 62 63 68 68 68 70 70 70 69 69 69 68 68 70 69 69 69 66 61 51 52 54 58 66
59 60 61 61 60 59 58 57 59 59 59 59 61 62 62 65 66 66 66 67 68 68 69 67 69 69 67 62 52 50 51 59 65
58 59 59 59 58 57 55 55 57 56 57 56 55 55 56 60 61 63 64 64 65 66 68 70 66 64 62 59 54 49 49 51 58
59 59 58 57 55 54 53 53 53 53 52 52 54 55 56 56 56 59 60 62 62 63 64 68 66 64 61 56 54 49 48 48 52
58 57 57 57 55 53 53 53 52 52 51 52 53 53 53 56 56 57 54 59 60 61 62 63 64 64 63 59 54 50 47 47 48
57 56 56 56 54 54 53 53 52 50 52 54 52 52 53 52 54 55 56 56 57 58 59 57 59 59 58 57 54 48 47 46 48
56 56 55 54 54 53 54 55 56 52 53 53 53 53 53 51 52 53 55 55 58 56 54 53 54 55 55 56 55 51 46 43 43
56 57 56 56 56 55 55 55 53 53 55 56 53 53 52 53 52 51 52 43 41 46 38 39 41 42 47 46 45 39 37 37 38
57 57 58 58 57 57 56 57 57 57 56 56 53 51 49 49 48 50 50 48 43 41 40 40 39 39 40 38 38 38 38 38 38
56 58 58 57 57 58 57 57 56 56 56 55 55 53 56 48 47 47 49 49 47 41 36 40 38 38 38 37 37 38 37 37 38

GFSFLT1_sfc_dewp_105.txt.gz
Dewpoint
60 61 62 63 58 64 66 64 66 69 71 71 71 71 71 70 71 71 71 71 70 70 69 71 71 72 71 71 72 71 71 70 71
59 60 62 63 63 66 68 68 68 70 71 71 72 70 72 70 72 70 70 71 71 72 72 71 71 69 67 68 71 71 71 71 69
55 57 60 63 65 67 69 69 68 70 72 71 71 71 72 71 71 71 71 71 69 69 69 69 69 67 67 68 72 70 71 71 71
55 57 59 63 66 67 67 67 68 67 67 71 71 72 72 72 71 72 70 70 71 70 68 67 66 68 70 72 71 71 70 71 70
58 57 57 64 66 66 65 65 67 67 68 70 71 72 71 71 71 69 70 69 69 70 70 69 69 71 73 72 71 71 71 71 71
59 58 63 65 66 66 66 65 66 69 70 70 71 71 71 70 68 69 71 70 69 69 71 71 72 72 71 71 71 71 71 72 71
65 60 63 64 65 65 66 67 69 70 69 69 69 69 69 67 69 69 70 70 71 70 70 70 70 71 72 71 69 69 69 71 71
64 65 66 65 65 67 67 69 69 69 68 68 69 68 68 68 68 68 69 68 68 68 69 70 71 71 69 68 66 64 65 67 69
62 63 64 65 65 66 66 67 68 68 69 69 69 69 68 70 70 69 69 69 68 68 68 68 70 69 67 63 59 56 58 60 65
61 62 62 63 63 62 63 64 64 65 68 69 69 69 69 69 69 69 69 70 69 68 67 68 69 64 58 50 49 53 55 59 61
61 61 62 61 61 60 61 61 62 62 66 68 68 69 69 69 69 68 67 67 67 66 67 67 66 63 59 51 45 52 54 60 63
60 61 60 59 59 58 58 59 60 61 60 61 61 62 63 66 66 65 65 64 66 66 67 66 66 63 58 51 44 50 51 57 61
59 59 58 58 57 56 56 56 58 58 57 57 56 56 60 61 61 62 61 61 62 62 64 66 61 60 57 54 45 49 49 53 51
58 58 56 56 55 54 53 54 55 55 55 55 56 56 57 57 57 59 59 59 59 60 62 64 62 58 55 53 46 44 48 48 44
57 56 55 54 53 52 53 52 53 53 52 54 54 54 55 56 57 56 56 56 57 58 58 60 62 62 56 51 48 48 47 48 49
57 56 55 54 53 52 52 52 52 50 51 51 51 51 51 51 51 53 54 53 54 52 55 54 57 58 57 52 45 43 47 46 48
55 55 55 54 53 52 52 52 51 50 51 52 51 51 50 50 49 50 51 47 51 47 46 48 49 48 49 53 49 44 38 37 40
55 55 54 54 54 53 53 53 51 51 52 52 51 52 51 50 50 50 42 39 42 38 36 38 41 39 41 44 43 35 36 35 34
55 55 56 56 55 55 54 54 51 52 53 53 51 50 50 50 50 48 45 40 37 40 40 40 39 39 41 34 37 37 38 37 38
56 55 55 56 55 55 56 56 55 55 53 54 53 52 51 48 48 47 50 47 42 36 36 40 37 38 38 39 38 37 37 37 38

GFSFLT1_sfc_dewp_108.txt.gz
Dewpoint
60 61 61 61 60 62 64 66 66 68 68 68 70 69 68 68 70 70 69 68 70 70 69 69 70 71 71 71 71 70 71 70 70
59 60 63 62 62 65 66 66 68 68 69 69 70 70 69 70 70 70 70 71 70 70 70 70 70 71 68 67 70 71 70 70 68
58 60 62 63 64 67 68 67 67 69 70 70 70 70 70 69 71 70 70 70 70 70 71 70 70 69 67 66 68 70 70 70 70
57 58 60 64 66 68 68 68 69 68 69 70 71 70 71 70 71 71 70 69 69 69 68 67 68 67 66 69 70 70 70 70 70
57 57 60 65 65 65 66 67 67 68 67 69 70 70 71 71 71 71 70 70 70 69 68 66 65 66 69 71 71 70 70 70 71
59 59 62 65 65 64 65 65 66 67 67 68 71 70 71 71 70 69 70 69 69 69 70 70 69 70 71 71 70 70 71 71 71
61 60 63 64 65 65 65 66 65 67 68 70 70 70 70 70 69 69 70 70 69 69 70 69 69 70 70 69 67 67 67 69 70
63 60 62 64 65 65 65 66 69 68 69 69 69 68 68 68 68 69 69 69 69 69 69 68 69 68 67 65 64 63 63 66 67
63 61 62 64 64 66 66 67 67 69 69 68 68 68 67 68 68 67 66 68 69 68 68 67 69 67 64 60 57 55 57 59 64
63 64 64 64 64 65 66 66 68 66 68 69 68 68 68 69 68 68 68 69 68 67 66 68 64 58 53 48 49 54 56 59 60
62 62 62 62 61 61 61 62 63 66 69 68 68 68 68 68 68 68 67 66 66 65 66 66 61 57 53 44 45 53 57 62 65
62 61 61 61 61 60 60 62 62 63 64 65 65 66 68 68 67 66 65 65 65 65 65 64 62 58 53 44 42 51 55 59 66
58 58 58 57 58 58 59 59 60 60 59 60 59 61 62 64 64 64 62 62 61 62 65 65 62 57 52 48 41 49 51 51 56
57 57 56 56 55 55 55 58 58 58 58 57 57 58 58 59 61 61 59 59 59 61 63 61 59 56 53 45 42 43 49 48 43
55 55 54 54 53 53 53 55 56 55 55 56 57 56 57 58 58 58 57 57 58 58 62 61 59 53 51 48 44 46 48 49 49
56 55 54 53 52 52 52 52 51 50 51 51 52 52 52 54 53 53 54 53 53 52 56 58 59 59 53 46 42 43 46 48 48
55 54 53 52 51 51 50 51 50 50 51 51 49 49 48 49 50 47 44 47 49 45 44 47 46 46 53 48 49 42 35 34 35
56 54 53 53 53 52 52 52 49 50 50 50 49 49 47 47 46 42 39 40 41 37 36 40 40 42 43 46 42 36 36 34 33
54 54 53 53 52 52 52 52 49 50 50 51 50 49 49 50 49 48 39 37 35 39 38 38 38 38 37 33 38 38 37 37 38
55 54 54 54 53 52 52 51 50 51 51 51 49 47 47 47 48 46 46 42 37 34 34 38 36 36 37 39 37 36 36 37 37

GFSFLT1_sfc_dewp_111.txt.gz
Dewpoint
60 61 59 60 60 61 63 65 66 67 67 67 69 68 68 69 69 69 68 68 68 69 69 69 69 70 71 70 70 66 70 70 69
59 61 62 60 60 62 64 64 66 67 67 67 69 68 68 68 69 69 69 69 69 69 69 69 69 70 70 70 70 70 70 69 68
57 60 63 62 61 63 65 66 67 68 68 67 69 69 68 68 69 69 69 70 69 69 69 70 68 69 68 67 67 69 70 70 69
57 59 62 64 64 65 66 68 68 69 69 69 69 70 69 69 69 69 70 70 69 69 69 68 68 69 67 65 68 70 70 70 70
57 58 61 64 66 67 67 67 68 68 68 70 70 70 70 70 70 70 70 69 69 69 68 67 66 66 66 68 70 70 70 69 71
59 60 63 65 66 66 66 66 66 66 67 67 69 70 70 70 70 70 70 69 69 69 68 68 67 68 69 70 70 70 70 70 71
59 61 62 64 65 64 65 66 66 66 67 68 69 70 70 70 70 70 70 70 69 68 69 68 69 70 70 69 67 67 68 69 70
59 61 62 64 64 64 64 65 66 66 68 69 70 70 68 69 70 71 70 70 69 69 69 69 69 69 67 66 65 63 63 64 66
59 60 60 62 63 64 65 66 67 67 68 68 68 68 69 69 69 69 68 68 68 69 68 68 69 67 65 61 62 58 57 60 63
62 62 63 64 64 65 65 66 67 67 68 68 67 67 68 68 68 67 67 67 68 68 68 68 64 60 56 50 50 55 57 59 60
62 62 62 62 62 62 62 64 65 66 68 68 68 67 67 67 67 68 68 68 67 66 67 63 58 53 50 45 48 55 59 63 65
60 61 61 61 61 60 61 62 62 65 65 66 67 67 68 67 68 67 66 65 64 65 64 60 57 52 48 43 43 53 56 62 61
58 57 57 59 60 60 60 61 62 62 64 65 65 66 67 67 66 65 64 64 64 64 63 61 57 53 46 46 40 50 51 58 57
56 56 56 56 56 56 58 60 60 59 59 59 61 62 62 63 63 63 63 62 63 64 63 59 56 53 47 41 41 46 50 48 48
55 54 54 54 54 54 55 56 57 57 56 58 60 61 61 60 60 61 58 58 60 62 61 59 56 52 48 44 42 47 48 49 49
54 54 53 53 53 52 53 53 54 53 52 54 55 55 55 56 55 55 55 55 52 55 60 60 57 53 50 45 42 39 44 46 46
54 54 53 52 52 51 51 51 50 49 50 49 48 48 48 50 51 45 45 47 48 47 48 48 49 49 56 47 49 42 35 33 34
54 52 51 50 50 49 49 49 49 50 50 48 47 46 46 46 46 41 41 39 39 38 36 41 43 43 50 47 46 41 37 35 32
54 53 53 53 52 52 51 48 48 48 48 48 48 47 48 49 47 41 39 38 35 39 38 38 37 38 40 35 40 38 37 37 37
54 53 53 53 52 51 51 50 48 48 49 50 50 48 48 48 49 48 42 39 38 36 35 37 36 35 37 38 37 36 36 36 37

GFSFLT1_sfc_dewp_114.txt.gz
Dewpoint
60 59 58 60 60 61 63 64 66 67 67 68 69 69 68 69 69 69 69 69 70 70 70 70 71 71 72 72 71 68 69 71 71
60 61 60 60 60 61 64 65 66 67 67 67 68 69 69 69 70 69 69 70 70 70 71 70 70 71 72 72 72 72 72 71 70
59 61 61 60 61 62 64 66 67 67 68 67 68 69 68 69 69 70 70 71 70 70 70 70 70 71 70 71 70 71 72 72 72
57 59 62 61 62 63 64 65 67 67 68 67 68 69 69 69 69 70 70 70 70 70 71 71 70 70 70 69 69 71 72 72 72
57 58 60 63 62 64 65 66 67 67 68 68 69 70 70 70 70 71 70 70 70 70 70 69 69 70 70 68 70 72 72 71 72
58 59 61 64 64 65 66 67 68 68 68 69 70 70 70 70 70 70 70 70 70 70 69 69 68 67 68 69 72 72 72 72 71
59 61 63 64 65 65 66 67 68 68 68 69 70 70 70 70 70 70 69 70 70 70 69 70 70 70 71 71 71 70 70 70 71
60 61 63 64 64 65 66 66 66 67 67 68 69 69 70 69 70 70 70 70 70 70 70 70 69 70 70 68 68 66 65 67 67
60 61 61 62 64 64 64 65 66 67 68 68 69 69 68 69 70 69 69 69 69 69 69 69 69 68 67 66 64 57 58 60 64
60 63 63 64 64 64 65 66 66 66 67 68 68 68 68 68 69 69 69 69 68 68 68 68 68 66 62 57 55 56 57 59 61
62 63 63 63 63 64 63 64 67 68 68 68 67 67 68 68 68 68 68 68 68 68 68 66 63 58 53 52 54 55 59 63 66
60 60 60 61 61 61 62 63 65 66 67 67 67 66 67 68 68 68 68 68 67 67 65 61 58 55 52 52 51 52 58 63 63
57 58 58 59 60 60 60 61 64 66 65 66 66 66 66 68 68 68 66 66 66 66 63 60 54 51 50 47 49 51 52 59 57
56 56 56 57 57 56 58 60 61 61 60 59 62 63 63 63 65 65 65 65 66 66 62 58 55 51 48 48 48 48 50 50 56
56 55 55 55 55 55 57 59 58 56 56 59 61 61 60 60 60 61 63 63 63 64 62 59 58 50 46 45 45 47 48 48 49
55 54 54 54 53 53 53 55 56 55 56 56 57 57 57 58 58 59 58 58 59 61 60 58 54 51 48 46 45 42 43 44 44
54 54 54 53 53 52 51 50 50 50 50 51 49 50 53 54 55 53 52 53 51 57 55 57 58 57 54 48 48 46 42 39 40
54 53 52 50 50 50 50 51 51 50 50 49 47 47 47 46 43 43 41 39 42 41 38 43 47 47 53 51 49 47 41 38 38
53 52 52 52 52 52 50 50 50 50 50 50 48 47 48 48 45 42 42 41 39 39 38 38 37 38 44 42 41 37 36 36 37
54 53 54 53 53 53 52 48 47 49 50 52 51 50 50 50 48 46 43 42 42 43 41 37 36 35 37 37 38 36 36 36 37

GFSFLT1_sfc_dewp_120.txt.gz
Dewpoint
57 56 56 56 58 60 62 63 65 66 68 70 70 71 71 72 72 73 68 69 71 68 68 68 71 71 72 72 73 73 73 70 70
52 54 56 57 57 61 63 64 65 66 68 69 69 69 71 72 73 73 69 71 75 70 76 75 74 73 72 71 72 72 73 69 70
55 56 57 58 58 60 63 64 65 66 67 68 68 68 69 70 71 72 72 72 75 72 72 74 73 73 73 73 73 73 75 71 72
56 59 59 59 59 62 63 65 65 67 67 68 68 69 70 70 70 70 71 71 73 74 75 74 74 74 73 73 73 73 75 74 72
57 61 61 61 61 63 64 64 65 67 68 68 68 69 71 71 71 71 70 72 72 74 74 75 74 74 73 73 73 73 73 73 70
59 60 62 64 65 65 65 66 66 66 68 69 69 70 70 71 71 71 71 72 72 73 73 73 72 73 73 73 72 73 73 74 72
60 62 63 64 64 64 66 66 66 67 68 69 70 70 71 71 71 71 71 72 73 73 74 73 73 73 73 73 72 72 73 73 72
59 60 61 63 64 64 66 67 68 68 69 70 70 70 70 71 72 72 74 74 74 73 73 72 72 72 72 73 72 70 73 73 72
59 59 60 62 65 66 66 66 68 69 69 71 71 70 70 72 74 74 74 72 74 73 72 71 71 71 71 71 70 59 58 62 69
60 61 62 62 65 66 68 67 68 68 70 70 71 70 70 72 73 72 73 73 73 72 72 73 72 71 71 70 69 57 57 58 64
62 63 64 65 65 67 67 68 69 69 69 70 70 70 70 72 71 71 72 70 70 70 71 70 71 71 69 69 66 55 58 62 64
61 62 63 63 64 66 68 68 68 68 68 68 68 68 69 69 70 70 69 69 69 70 70 70 68 64 61 60 58 53 58 64 68
59 60 61 62 62 64 65 66 69 68 67 67 68 68 69 70 70 70 68 69 68 69 69 66 62 59 59 57 60 53 53 60 67
59 59 59 60 60 60 61 64 67 68 68 68 68 69 67 66 67 66 68 69 68 66 62 60 59 58 57 57 55 53 52 52 64
58 58 58 59 58 58 59 60 61 60 61 64 66 65 65 65 65 65 66 66 63 62 61 59 57 56 55 55 54 48 47 48 49
59 58 57 57 56 55 55 57 58 57 58 61 61 60 59 61 62 62 62 64 64 61 61 59 57 56 56 56 57 52 46 46 48
58 58 58 56 56 55 53 54 55 56 56 56 56 56 56 55 58 58 59 59 60 61 62 61 60 58 57 57 52 50 53 51 46
58 56 56 57 56 54 53 53 53 53 54 54 51 50 49 50 52 51 50 49 52 53 49 52 59 59 61 58 55 52 45 44 46
53 52 53 53 51 50 50 51 52 53 52 52 49 46 44 44 46 46 46 46 42 40 46 47 45 45 51 48 45 39 38 38 38
54 54 51 50 50 51 52 53 54 55 56 55 54 52 52 48 46 45 46 46 45 44 37 39 37 38 38 39 41 37 37 37 38

GFSFLT1_sfc_dewp_123.txt.gz
Dewpoint
57 57 54 54 55 57 63 63 63 65 67 70 70 71 71 73 72 68 67 70 67 66 66 66 72 72 72 72 73 72 73 70 69
54 56 56 57 55 55 62 63 64 66 67 69 69 69 71 72 72 71 69 75 72 69 72 68 72 71 72 72 72 72 74 70 70
55 57 58 58 56 56 59 61 64 65 67 68 68 68 68 69 70 71 71 75 73 72 75 73 73 73 72 72 72 73 75 72 74
52 53 55 57 63 59 59 62 63 66 66 68 68 68 70 71 69 70 71 70 72 74 75 74 74 74 75 74 73 73 76 75 75
55 56 58 61 60 61 62 63 64 65 67 67 68 69 72 71 71 70 69 70 70 75 75 76 76 75 74 74 74 75 75 74 71
60 59 61 62 64 66 63 64 65 64 66 68 67 70 68 70 70 70 71 71 71 72 74 74 71 75 75 75 74 73 73 74 73
60 63 64 65 65 66 68 66 68 68 67 68 69 68 68 70 69 69 70 71 73 71 72 73 72 73 73 73 71 71 73 73 73
60 62 64 65 65 65 67 67 69 69 70 70 69 69 69 71 73 72 73 73 74 74 73 72 72 71 71 72 71 68 72 72 72
59 60 61 63 64 65 65 67 67 68 70 73 73 72 71 74 75 73 73 74 73 74 73 73 73 73 71 72 71 61 62 65 69
62 59 60 61 66 66 66 67 69 69 71 72 72 72 71 72 72 73 73 72 75 75 75 75 73 73 72 72 66 59 58 59 65
62 64 65 64 66 68 68 68 69 69 70 70 70 72 71 72 72 72 73 73 73 74 74 73 73 71 70 70 59 56 59 63 67
60 61 62 63 65 68 68 68 68 67 68 68 69 70 70 71 70 70 70 71 71 71 72 71 70 67 64 63 59 55 57 62 68
60 60 61 61 62 65 67 68 68 66 66 67 66 67 69 70 71 71 70 71 72 71 71 69 63 61 59 59 59 52 53 55 64
59 59 60 60 59 61 61 64 68 68 67 66 67 68 68 67 67 68 68 68 68 65 61 60 58 58 57 55 53 51 49 51 58
59 59 59 59 58 57 59 61 62 62 63 65 67 66 66 66 66 66 66 64 62 61 60 59 57 55 54 54 52 49 50 50 51
59 58 57 57 56 55 56 58 59 57 59 61 62 62 61 61 62 62 63 65 63 62 61 59 58 57 56 55 55 55 52 48 50
58 57 57 57 55 54 54 56 57 57 58 59 58 58 58 57 58 61 63 61 61 63 62 61 60 59 57 56 56 58 56 54 49
57 58 57 57 56 54 54 55 57 55 55 54 52 52 54 54 53 53 53 55 57 57 53 58 61 61 60 59 58 57 50 45 49
56 56 55 53 51 50 52 52 53 56 54 54 52 47 45 48 50 48 47 46 45 42 46 46 46 47 52 55 45 40 37 37 38
52 51 51 51 52 53 54 55 55 56 56 57 57 52 55 47 46 46 48 48 45 41 38 38 38 39 40 40 43 38 37 37 38